GFSMA_925_thetae_018.txt.gz
Theta_e
327 325 320 319 321 321 320 319 316 314 313 313 313 313 312 312 311 311 310 310 311 309 307 308 309 310 310 310 310 310 310 311 313 315 316 318 321 321 319 316 313 310 315
327 322 322 321 320 318 315 313 312 313 312 311 311 311 310 309 309 309 310 309 310 308 306 307 307 307 306 306 306 307 308 308 309 310 311 313 315 318 319 320 317 315 310
323 321 319 316 316 313 313 312 312 311 310 309 309 308 308 308 307 306 307 307 308 309 307 305 304 304 303 303 303 304 304 305 307 307 308 310 311 312 315 316 320 318 317
316 315 316 315 314 312 312 311 310 310 309 309 308 307 307 306 305 304 306 305 306 309 307 305 303 302 301 301 301 301 302 303 304 305 306 306 307 308 309 312 314 318 320
315 314 314 313 311 311 310 310 310 309 309 307 305 304 305 304 305 303 302 303 304 308 307 305 303 301 301 300 299 299 300 302 303 303 303 303 304 304 305 306 309 312 315
313 313 312 311 311 310 309 308 308 308 307 304 303 302 304 304 303 302 303 304 306 305 304 303 302 300 298 298 297 298 299 299 301 302 301 300 300 301 302 303 305 308 311
310 310 311 310 309 309 308 306 305 304 305 304 302 303 302 302 301 300 300 299 299 300 301 300 298 297 296 296 296 296 296 298 299 298 298 297 298 299 300 301 302 304 307
310 309 309 308 308 307 306 304 302 303 304 303 302 301 300 300 300 299 298 298 298 297 298 297 296 295 294 293 293 294 294 295 294 294 294 295 295 296 298 300 301 302 304
309 309 308 306 305 305 304 303 302 303 303 301 301 300 299 299 299 299 298 297 295 295 295 295 294 294 293 292 292 293 292 292 292 292 293 293 293 295 296 298 300 301 303
307 303 301 299 299 300 302 303 302 302 301 301 300 299 298 297 296 295 295 295 294 294 294 294 293 292 292 292 292 292 292 292 290 291 291 291 292 293 295 296 299 300 301
299 299 298 298 298 298 299 301 302 302 300 300 299 298 296 296 295 294 293 293 293 293 293 293 292 291 292 292 291 291 290 290 290 290 290 290 291 292 293 295 297 299 300
298 298 298 297 298 299 299 301 301 300 300 299 298 296 295 295 294 293 292 292 292 292 292 292 291 291 291 290 290 289 289 289 288 288 289 289 289 292 292 293 295 298 300
298 297 297 297 298 299 300 300 300 298 299 298 297 295 294 294 293 293 293 292 292 292 291 291 291 291 290 290 289 289 288 288 288 288 289 289 289 291 291 291 294 297 298
297 296 296 296 297 299 300 300 298 299 298 297 296 295 294 293 292 292 292 291 290 290 291 291 290 290 290 289 288 288 288 288 287 287 288 288 289 289 289 291 292 296 296
296 296 296 296 296 297 298 299 299 297 297 296 295 294 293 293 292 292 292 291 291 289 289 290 290 289 289 288 287 287 287 286 287 287 287 287 288 289 290 291 292 294 294
296 296 295 295 295 296 298 299 298 297 296 295 294 293 292 293 292 291 291 290 290 290 289 289 289 289 288 286 286 286 286 286 285 286 286 287 288 289 289 290 291 292 292
296 295 295 295 295 295 295 295 295 295 294 294 294 292 292 292 291 290 290 290 289 288 287 287 287 287 286 285 285 285 285 285 285 286 287 287 288 289 289 289 289 290 290
296 295 295 295 295 295 295 294 294 295 294 294 293 292 292 291 290 290 289 287 286 285 285 285 285 285 284 284 284 284 285 285 285 285 286 287 288 289 289 288 289 288 290
296 295 295 295 295 293 293 293 293 294 293 292 291 291 291 289 288 287 286 284 283 284 284 283 283 283 283 283 283 284 285 285 285 285 286 286 287 289 289 288 288 288 291
295 295 294 294 294 294 293 292 292 291 291 291 291 290 289 287 286 285 283 282 282 282 282 282 282 282 282 283 283 283 283 284 284 284 285 286 287 288 289 288 288 288 291
295 295 294 294 294 294 293 291 290 290 290 289 289 288 287 286 285 284 283 282 282 281 281 281 281 282 282 282 282 283 283 283 284 284 285 285 286 287 288 289 290 290 288
295 295 294 294 294 294 293 292 290 288 287 288 287 287 286 285 284 283 283 282 281 281 281 281 281 281 282 282 282 282 282 282 283 283 283 284 284 286 286 289 290 288 287
294 295 294 294 293 294 293 291 288 287 286 287 287 285 285 284 283 283 282 281 280 280 281 281 281 282 282 281 280 280 280 280 281 282 282 282 283 284 285 287 288 287 287
294 294 294 293 293 292 291 290 287 286 287 287 286 285 284 283 282 281 280 278 279 279 280 280 279 279 279 280 280 280 280 280 281 281 282 282 284 284 285 286 287 287 287
294 294 293 293 292 291 290 288 286 285 286 286 285 284 284 283 281 281 279 278 278 278 279 278 277 279 280 280 281 281 281 281 281 282 282 283 284 285 285 286 285 287 287
293 293 293 291 291 290 288 287 286 284 284 285 284 284 283 282 280 280 278 278 278 278 277 277 278 280 280 281 282 282 282 281 282 282 283 283 284 285 285 286 287 287 287

GFSMA_925_thetae_021.txt.gz
Theta_e
327 327 321 320 320 319 317 314 313 312 312 311 310 309 309 309 308 306 310 310 309 308 310 312 311 309 308 307 305 306 307 308 309 310 310 312 313 314 315 317 319 319 317
323 322 321 320 318 314 313 312 312 310 310 309 309 309 308 307 307 306 305 307 308 308 308 308 307 307 306 305 305 305 305 305 305 307 307 309 308 309 310 312 314 317 319
324 319 315 315 313 312 312 311 310 310 309 309 308 307 305 307 306 306 304 303 306 308 307 305 304 305 304 304 303 303 303 303 304 305 305 305 306 306 306 307 308 311 315
315 316 315 314 312 311 310 310 310 309 308 308 306 304 304 303 303 304 303 302 303 305 307 304 302 303 302 302 302 302 302 303 303 303 304 304 303 303 303 304 305 307 309
314 313 313 311 310 310 309 308 308 307 306 306 304 303 302 304 303 302 302 301 305 307 305 304 301 300 299 300 299 300 300 300 300 302 303 301 300 300 300 301 303 304 305
313 312 311 310 309 309 308 307 305 304 303 304 303 302 302 301 301 300 299 298 299 299 303 300 299 299 298 297 297 297 298 297 299 300 299 299 298 298 298 299 300 302 303
310 310 310 309 309 308 307 305 303 302 302 303 302 300 300 300 300 299 298 298 297 296 296 296 296 295 295 295 294 295 295 297 296 296 296 295 295 295 296 297 298 300 301
309 309 308 308 307 305 305 304 303 302 302 302 300 300 297 299 298 297 297 297 295 294 294 294 294 294 293 292 292 292 293 293 293 293 293 294 294 294 294 295 297 298 300
309 307 305 302 301 301 301 302 302 302 301 301 300 299 296 296 295 296 296 294 294 293 293 292 293 292 292 291 292 292 292 292 293 293 292 292 293 293 293 294 295 296 298
305 302 300 298 298 298 297 298 301 301 301 300 300 299 297 295 293 292 293 293 292 292 292 292 292 291 291 292 291 291 290 290 289 290 291 291 291 291 292 292 294 295 296
300 298 298 298 297 297 299 299 301 301 300 300 299 298 296 295 294 292 290 291 292 292 292 292 291 291 291 290 290 290 289 289 288 289 289 290 290 290 290 291 294 294 294
298 298 297 297 296 298 299 300 300 299 299 298 298 297 295 294 293 292 290 290 291 291 291 290 291 291 290 289 290 289 289 288 288 289 289 289 289 289 290 291 292 293 293
297 297 296 296 296 297 299 300 299 298 298 297 297 296 295 294 293 292 292 290 290 290 290 290 290 290 290 289 289 288 288 287 287 288 288 288 289 288 289 289 291 291 292
297 296 296 295 295 296 298 299 297 298 297 297 297 295 295 294 293 292 292 290 287 288 289 289 289 289 289 289 288 287 287 286 286 286 287 287 287 287 288 289 290 290 291
296 296 295 295 295 295 295 298 298 298 297 296 295 295 294 293 292 292 291 291 290 285 288 289 288 288 287 287 287 286 285 284 285 285 284 286 287 287 288 289 290 290 291
296 296 295 295 295 295 295 296 298 296 295 294 295 294 293 292 292 291 291 290 289 288 285 287 286 285 286 285 285 284 284 284 284 284 285 285 286 287 288 288 290 290 291
296 295 295 295 294 295 295 295 294 294 294 294 294 294 293 292 291 290 289 288 286 285 284 284 284 284 283 283 283 283 283 283 285 285 285 285 286 287 287 288 288 289 290
296 295 295 294 295 295 294 293 293 293 294 292 292 292 291 291 290 288 287 286 285 283 283 282 282 282 282 282 282 282 283 282 283 284 284 285 285 286 286 287 288 289 288
296 295 295 294 294 294 294 293 292 292 291 291 291 291 290 289 288 286 285 284 283 282 282 281 281 281 281 281 281 282 282 282 283 283 283 284 285 285 286 287 288 289 288
296 295 295 294 294 294 294 293 292 291 291 290 289 289 288 287 286 285 284 283 282 282 282 281 280 280 281 281 282 281 282 282 281 281 283 284 283 284 284 287 288 288 288
296 295 294 295 294 294 294 294 292 290 289 289 288 287 286 286 285 284 283 283 282 282 281 281 280 280 280 281 281 281 281 280 280 280 281 281 282 282 283 285 288 289 289
295 294 295 294 294 294 294 294 292 291 288 287 287 287 286 285 284 283 283 282 281 280 280 280 280 280 281 281 281 280 280 279 279 279 280 280 281 281 282 284 286 287 287
294 294 295 294 294 293 294 293 292 289 287 287 287 286 285 284 284 283 282 281 280 278 279 279 279 278 278 278 279 279 279 279 279 280 280 280 281 282 283 284 284 286 287
293 294 294 294 293 293 293 292 291 288 286 286 286 286 285 284 283 282 282 280 278 277 277 279 279 277 278 279 280 280 280 280 280 281 280 281 282 282 283 285 284 285 286
293 293 293 293 293 292 291 290 289 286 285 286 285 285 284 283 282 281 280 280 277 277 277 278 278 279 279 280 281 281 282 281 280 281 281 281 283 283 283 285 285 286 286
292 292 293 293 291 291 290 289 288 286 285 285 284 284 283 283 281 281 281 279 277 278 278 278 278 278 278 280 280 280 281 282 282 282 282 283 283 283 284 285 285 286 286

GFSMA_925_thetae_027.txt.gz
Theta_e
325 322 320 320 318 315 314 312 311 310 310 309 308 307 305 305 305 304 304 305 307 309 314 315 313 311 309 308 307 307 307 308 307 307 307 306 305 305 304 304 305 306 307
323 321 319 318 315 313 311 311 310 310 309 308 307 304 303 302 302 302 302 303 303 306 311 313 311 309 308 306 305 305 306 306 305 305 306 305 303 303 303 302 302 303 304
321 319 316 313 312 311 310 310 309 309 308 307 305 303 302 302 300 300 301 302 303 309 311 308 308 306 305 305 304 304 304 303 303 303 304 303 303 302 301 301 301 301 302
320 315 313 311 310 310 309 309 308 306 305 303 303 302 301 300 299 299 299 302 306 308 306 304 305 304 303 302 302 302 302 302 301 301 303 301 300 300 299 299 299 299 300
315 314 312 310 309 309 308 307 306 303 302 301 302 301 300 299 298 297 297 298 302 305 303 300 298 297 298 298 298 298 299 299 299 300 299 298 298 298 298 298 297 298 298
314 312 310 310 309 309 308 305 303 302 300 301 302 301 300 298 298 297 296 296 296 296 295 295 295 294 296 296 296 296 296 296 297 298 296 296 296 296 296 296 296 296 296
311 310 310 309 308 306 303 302 301 300 300 301 301 300 299 297 297 296 295 294 294 293 293 293 293 293 292 292 291 294 295 295 295 295 295 295 295 295 294 295 295 295 295
310 309 308 307 304 303 301 299 298 300 301 301 300 298 295 297 296 295 294 293 293 292 292 292 291 291 291 291 291 292 293 293 293 294 293 293 293 293 293 293 294 294 294
309 308 306 303 300 299 298 296 297 300 300 300 299 299 294 294 294 296 293 293 293 293 292 291 291 291 291 290 290 290 290 290 290 291 291 292 292 293 293 293 293 293 293
307 303 300 299 298 297 296 296 298 299 301 300 298 298 297 296 291 291 293 292 292 292 292 292 291 290 290 290 289 289 289 290 291 290 290 291 291 291 292 292 292 292 292
300 298 298 297 296 295 295 297 298 299 299 299 298 297 296 295 293 290 289 291 292 292 291 291 290 290 289 289 289 288 289 289 290 290 290 290 290 290 290 290 290 291 291
298 298 297 296 295 294 296 299 299 298 297 297 297 296 296 294 293 291 288 289 289 291 291 290 290 290 289 288 288 288 288 288 287 288 288 288 289 289 289 288 288 289 290
297 296 296 295 295 294 295 297 298 297 297 296 296 296 296 295 294 293 291 289 288 289 290 290 290 289 288 287 287 286 286 286 285 286 286 287 287 286 286 287 288 289 290
297 296 296 298 294 294 294 294 296 297 297 296 296 296 295 295 294 292 291 290 287 287 288 289 289 288 287 286 284 284 283 283 284 284 285 285 285 286 287 287 288 288 289
296 296 295 294 294 294 294 294 294 296 298 296 295 294 294 294 294 292 291 291 290 285 285 288 288 287 285 283 282 281 282 281 283 283 283 284 285 286 286 287 287 288 288
299 296 295 295 294 293 294 295 295 296 295 294 294 294 294 293 292 292 291 290 289 289 287 287 285 283 282 281 280 281 280 281 281 283 282 283 284 285 285 285 286 287 287
296 296 296 296 295 295 294 294 294 293 293 292 293 293 293 293 293 292 291 289 288 286 283 284 283 282 282 281 280 280 280 281 281 281 282 283 283 283 283 285 286 286 286
297 297 296 296 295 294 294 294 294 293 293 293 293 292 292 291 291 290 289 288 286 284 283 282 282 282 281 280 280 280 280 280 280 280 281 281 281 281 282 285 284 284 285
297 297 296 296 295 295 293 293 294 293 293 292 292 291 291 290 290 289 287 285 284 283 282 281 281 281 279 279 279 280 280 280 280 280 279 280 280 280 281 282 283 283 283
297 297 296 296 295 295 294 294 294 293 292 292 291 290 290 289 287 286 285 284 283 282 282 281 280 279 279 279 279 279 279 279 279 279 280 280 280 281 281 281 280 281 283
296 296 295 295 295 294 294 294 294 293 292 291 290 289 288 287 286 285 285 284 283 282 281 279 279 279 278 278 278 277 277 278 279 280 280 280 280 281 281 281 281 281 282
295 294 294 294 294 294 294 294 294 293 292 290 289 288 287 286 286 285 284 283 282 281 280 279 278 278 277 278 277 278 278 278 279 280 280 280 280 280 281 282 282 282 283
296 297 294 293 293 294 294 294 293 293 292 291 290 288 287 286 285 285 283 282 281 280 280 278 277 277 278 278 278 278 279 279 280 280 280 280 280 281 282 282 283 284 284
295 297 293 293 292 292 293 293 293 292 291 291 288 287 286 286 285 284 283 282 281 280 281 278 278 278 278 279 278 279 280 279 279 279 280 280 281 281 282 282 283 284 284
295 293 292 292 292 292 292 293 292 292 291 290 288 287 286 285 285 284 283 282 281 281 279 278 278 278 279 278 278 278 278 278 279 279 279 280 281 281 282 282 283 282 284
292 292 292 292 291 291 292 292 292 291 290 289 288 286 286 285 284 283 282 281 281 280 279 279 279 279 279 279 278 277 278 278 278 279 280 280 280 281 282 282 283 282 284

GFSMA_925_thetae_030.txt.gz
Theta_e
324 323 322 318 317 315 314 312 311 310 309 308 307 305 303 303 303 303 303 303 306 309 313 315 313 311 310 308 307 307 308 306 306 307 307 305 305 304 303 303 302 303 303
323 320 318 317 315 313 312 311 310 309 308 307 305 303 301 301 301 302 302 302 303 308 311 313 311 309 308 306 305 306 305 304 304 306 305 304 303 302 301 301 301 301 301
321 319 318 316 313 311 310 310 309 308 307 305 303 301 301 300 300 300 301 301 304 309 311 309 308 306 307 305 304 304 304 303 302 302 304 303 301 301 300 300 300 300 300
320 319 316 313 311 310 309 308 308 307 305 301 301 301 300 299 298 299 300 302 306 308 305 305 305 304 302 300 300 300 301 301 300 300 302 300 299 299 298 299 298 298 299
318 315 312 311 309 309 308 308 306 302 300 300 301 300 299 298 297 297 297 300 305 305 302 300 297 297 299 299 299 298 298 298 298 299 299 298 297 297 297 296 297 297 297
313 312 311 309 308 308 307 303 301 300 299 300 301 301 299 297 296 296 296 296 296 296 296 296 294 294 294 294 295 296 296 296 297 297 297 297 297 296 295 295 295 295 296
312 311 310 308 307 306 303 301 300 300 300 300 300 299 297 296 296 295 294 294 294 294 293 293 293 293 292 292 291 294 294 294 294 295 295 296 295 294 294 294 295 295 295
310 309 308 307 305 302 298 298 298 299 300 300 299 297 294 296 296 294 293 293 293 293 292 292 291 291 291 291 291 291 291 291 291 292 292 293 293 293 293 294 294 294 294
309 308 307 303 299 298 296 296 296 297 299 299 299 298 295 294 293 295 293 292 292 292 292 291 291 291 290 290 290 289 288 288 290 291 291 292 292 292 292 293 293 293 293
308 305 301 299 298 296 295 295 296 298 299 299 298 298 297 296 293 293 294 294 292 292 292 292 291 290 290 289 289 288 288 289 289 290 291 291 291 291 292 292 292 292 292
303 300 299 297 296 294 295 295 296 298 298 298 298 297 296 295 294 291 290 292 292 292 292 291 291 290 289 289 289 288 288 288 288 289 290 290 290 290 290 290 291 291 290
300 298 297 296 297 301 296 295 296 298 297 296 296 296 296 294 293 291 288 289 289 292 292 291 290 289 289 288 288 287 287 287 286 287 287 288 288 289 289 289 288 288 289
297 297 296 297 300 295 293 293 296 297 297 296 296 295 295 295 295 294 291 290 288 289 290 290 291 290 289 288 286 286 284 284 283 284 285 285 286 286 286 287 288 288 289
299 298 296 300 299 300 293 293 294 296 297 297 296 295 295 295 295 294 292 290 287 287 289 290 290 289 288 287 285 283 282 281 281 283 283 284 284 285 286 286 287 287 288
298 296 299 301 295 293 293 293 294 294 296 297 296 294 294 293 293 293 292 291 290 290 287 289 288 288 287 284 282 281 280 280 281 282 282 283 283 284 284 285 286 287 287
298 297 300 295 294 294 293 294 294 294 296 295 293 293 293 293 293 292 292 291 290 289 288 289 287 286 283 282 282 280 280 280 280 280 282 282 283 283 284 283 284 284 285
297 299 295 295 295 295 294 293 294 294 293 293 292 292 293 293 293 292 291 291 289 288 286 285 284 283 282 282 280 279 279 280 280 280 281 281 282 282 282 282 282 283 286
299 296 296 296 296 295 294 294 294 294 293 293 293 292 292 292 292 291 291 290 289 287 284 282 282 282 282 281 279 279 279 279 279 279 280 280 281 281 281 282 282 283 284
297 296 296 296 295 295 295 294 293 293 293 293 293 292 292 291 291 290 289 288 287 285 283 281 281 281 280 279 278 278 279 278 278 279 279 280 280 281 281 282 282 282 282
297 296 296 296 295 295 295 294 293 293 293 293 292 292 291 291 290 289 287 286 285 283 282 281 281 280 279 278 278 278 277 278 278 279 280 280 280 280 281 281 281 282 282
297 296 296 295 294 297 294 294 294 294 293 293 292 291 291 289 288 287 286 285 284 283 282 281 280 279 278 277 278 277 277 278 278 279 280 279 280 280 281 282 282 282 282
296 295 294 295 297 297 293 293 294 294 293 293 292 291 290 289 287 286 285 285 284 283 281 280 279 278 277 277 278 278 277 278 279 279 280 279 280 280 281 281 282 282 283
295 297 297 297 297 294 293 293 293 293 293 293 292 291 289 288 286 286 285 284 283 282 281 280 280 278 277 278 278 278 278 278 279 279 279 279 279 280 281 281 282 283 284
298 297 297 294 293 293 292 292 292 292 292 292 292 290 289 288 287 286 285 284 283 281 281 280 280 278 278 278 279 278 278 278 278 278 278 279 279 280 280 281 282 283 283
297 296 293 293 292 292 291 291 292 292 292 292 291 290 289 287 287 286 284 283 283 282 281 280 279 279 279 279 279 278 277 277 277 278 278 278 280 280 280 282 282 282 282
296 294 292 291 291 290 289 290 291 291 291 290 290 290 288 287 286 285 284 283 282 282 281 280 279 279 279 279 279 278 277 277 277 277 279 278 279 280 281 281 282 282 282

GFSMA_925_thetae_033.txt.gz
Theta_e
319 321 320 317 316 315 314 312 311 310 309 308 307 306 304 302 302 302 303 303 305 309 314 316 313 312 309 308 308 308 306 306 307 306 306 305 304 303 303 302 302 302 302
323 323 319 317 316 314 311 311 310 309 308 306 304 302 300 299 300 300 301 304 302 305 312 315 312 311 308 307 305 306 305 304 303 303 305 304 302 301 301 301 300 300 301
323 321 318 316 313 312 312 310 308 307 306 303 301 300 300 300 301 301 301 303 307 309 312 311 308 307 307 306 305 304 304 303 302 301 302 302 301 300 299 299 299 299 299
320 318 317 314 312 311 309 308 307 306 303 301 301 300 300 299 299 299 300 304 305 306 307 307 306 303 302 301 301 301 301 300 300 300 300 301 299 299 298 297 297 297 298
320 318 316 312 310 308 308 307 305 301 300 301 301 300 299 298 297 298 299 303 305 303 302 303 301 298 297 298 299 298 298 298 298 298 299 299 298 298 297 296 296 296 296
319 315 312 310 308 308 307 303 301 299 299 302 300 300 298 297 296 296 296 296 297 297 297 296 295 295 294 293 294 295 295 296 297 297 297 297 298 297 296 295 296 296 296
314 312 310 308 308 307 304 302 299 299 301 299 301 300 298 296 296 295 295 295 294 294 294 293 294 293 293 292 291 294 293 294 294 293 294 294 294 294 294 294 295 295 296
312 311 309 308 307 304 301 298 297 301 300 299 301 300 301 299 297 295 294 294 293 293 293 292 292 291 292 292 292 290 291 291 292 292 292 293 293 293 293 294 294 294 294
310 309 309 308 305 301 297 296 296 297 300 299 299 300 300 300 299 297 295 294 293 293 293 292 291 291 291 291 290 290 289 288 291 291 291 292 292 293 293 293 293 294 294
309 308 307 304 300 297 295 296 296 297 299 300 299 298 298 299 299 299 296 295 294 294 293 293 292 291 290 290 290 289 290 289 288 290 290 291 291 291 291 292 292 292 292
308 307 303 300 298 295 299 301 297 298 297 299 299 299 298 297 296 297 297 296 294 294 293 293 292 291 289 290 290 290 288 287 287 288 288 289 289 290 290 290 290 291 291
304 302 300 298 296 302 300 296 296 295 297 297 298 297 297 297 296 295 296 295 294 294 293 293 292 291 290 289 289 287 287 286 284 284 285 286 287 287 288 288 288 289 289
301 300 299 296 299 300 297 298 295 296 296 298 297 297 296 296 295 295 295 294 294 293 292 292 292 291 289 289 288 287 285 284 282 282 283 284 285 286 286 287 287 288 289
301 298 297 297 299 299 297 295 294 294 295 297 296 296 296 296 295 295 294 294 295 293 292 292 291 290 289 288 287 285 284 283 281 281 283 284 284 284 285 285 286 286 287
301 299 298 299 300 295 293 293 293 294 294 296 295 296 295 295 294 294 294 293 294 294 293 292 290 290 289 287 285 284 283 282 280 282 282 282 283 284 284 284 285 286 286
301 299 297 298 296 293 293 293 293 294 294 295 295 295 295 294 294 293 293 293 292 292 293 290 290 289 287 285 284 283 282 281 281 281 281 282 282 283 283 283 283 284 284
300 298 297 299 294 294 294 294 294 294 294 296 294 293 294 293 293 293 293 292 292 291 291 290 288 286 285 284 283 282 281 281 281 281 281 281 281 282 282 282 282 282 283
299 297 299 295 294 295 295 295 294 293 294 295 294 294 293 293 293 293 292 292 291 290 289 288 287 285 284 283 282 281 281 280 281 280 280 281 281 281 282 282 282 283 283
300 297 296 295 296 296 295 294 295 294 293 293 293 293 293 293 293 292 291 291 290 288 287 286 285 284 283 282 281 281 280 281 280 280 280 280 281 281 281 282 282 283 283
298 298 296 296 296 295 294 296 296 293 293 293 293 293 293 293 292 292 291 290 288 287 286 285 284 284 283 282 281 280 281 280 280 280 280 280 281 281 281 282 282 282 283
297 296 296 295 294 294 297 297 296 293 293 293 293 293 293 292 292 291 290 289 287 286 285 285 284 284 283 282 281 280 280 280 280 281 281 281 281 281 282 282 282 282 282
296 295 294 293 295 296 295 296 295 293 293 293 293 293 292 291 291 290 288 287 286 286 285 284 284 283 283 282 280 280 280 280 281 281 281 281 281 282 282 282 282 282 282
294 295 296 295 296 295 295 294 293 291 292 293 293 292 291 290 290 288 287 286 285 284 284 284 283 283 282 280 280 280 280 280 280 280 280 280 281 282 282 282 282 282 282
297 296 295 296 295 295 295 294 292 291 291 291 291 292 291 290 289 288 286 286 286 285 283 282 282 282 281 279 280 280 280 280 280 280 280 280 281 282 282 282 283 282 282
296 296 296 296 294 294 292 291 290 290 290 291 291 291 290 290 289 289 285 285 285 284 282 282 281 281 279 279 280 280 280 280 280 280 280 280 281 281 282 283 283 283 282
297 297 295 294 292 291 291 289 289 289 290 290 290 290 290 290 289 288 286 286 285 285 283 282 281 280 279 280 280 280 280 280 280 280 280 279 280 280 281 282 283 284 284

GFSMA_925_thetae_036.txt.gz
Theta_e
325 323 321 320 319 317 317 316 314 313 312 311 310 309 307 306 305 305 306 304 304 309 315 316 314 312 310 309 310 306 306 305 305 305 306 305 303 303 302 302 301 301 301
324 322 321 319 318 318 317 316 314 312 311 310 308 306 304 303 304 305 305 308 302 305 312 314 314 312 309 307 306 306 306 304 304 303 304 304 302 302 301 300 300 299 300
324 322 321 319 318 316 315 313 312 311 310 307 305 304 303 303 304 304 305 306 307 306 311 312 310 309 308 306 305 304 304 303 302 301 301 303 302 301 300 299 298 298 298
323 321 320 318 316 315 314 312 311 310 307 305 304 303 303 302 302 303 304 305 304 305 309 309 308 305 303 302 302 302 301 300 300 300 300 300 300 300 299 299 298 297 297
321 320 319 317 315 314 312 311 309 307 305 304 303 303 302 302 301 301 303 304 303 304 305 305 305 302 299 298 298 298 298 299 299 299 299 300 299 299 299 299 298 296 297
320 320 318 315 313 312 311 310 308 305 303 303 302 303 302 301 301 301 300 299 300 300 300 300 299 298 295 293 294 295 296 296 297 296 296 296 296 296 296 296 296 296 297
319 318 316 314 312 312 310 309 306 304 304 303 305 306 303 302 301 300 300 299 298 298 298 297 297 297 297 294 292 294 294 294 294 294 294 294 294 295 295 295 295 295 296
318 316 314 313 312 311 309 307 304 305 305 304 306 304 307 304 302 300 299 298 298 297 297 296 296 296 295 295 294 291 290 291 292 293 293 293 293 294 294 294 295 295 295
316 314 313 312 311 309 307 305 304 305 307 304 303 302 305 306 303 301 300 299 298 297 297 296 296 295 295 294 294 293 291 290 290 292 292 293 293 293 293 293 293 294 294
314 313 312 311 309 307 305 303 305 306 305 306 303 301 301 301 301 302 301 299 299 298 297 296 296 295 294 294 293 292 291 289 288 290 291 291 291 291 291 291 292 292 293
312 311 309 307 306 305 303 304 305 304 305 301 302 303 301 300 300 300 301 299 298 297 297 296 296 295 294 294 293 293 291 288 287 287 287 287 288 288 289 289 290 290 291
311 307 306 305 305 303 304 306 303 304 300 301 301 300 299 300 300 299 299 298 298 297 296 295 295 295 294 293 293 290 288 287 286 285 285 285 286 286 287 288 288 289 289
307 308 305 305 304 303 305 303 303 300 301 300 300 300 299 298 297 297 297 297 298 297 296 295 294 294 293 293 292 290 288 287 285 284 284 284 285 285 286 286 287 288 288
309 307 304 304 303 303 302 302 299 300 300 300 300 299 298 298 297 297 297 296 298 296 296 296 295 293 292 292 291 289 288 286 285 284 283 283 284 284 285 285 286 286 287
307 305 304 303 302 302 301 300 299 299 299 301 300 299 298 297 297 296 296 295 296 297 297 295 294 293 292 291 290 288 287 286 285 283 283 283 283 283 284 284 285 285 285
309 305 304 302 301 300 300 298 298 299 301 300 299 298 297 296 296 295 295 295 295 294 296 294 293 292 292 290 288 286 286 285 284 283 283 282 282 282 283 283 283 284 284
308 303 303 302 299 300 297 296 298 300 298 298 298 297 297 296 295 295 295 294 294 294 294 293 292 291 290 289 287 287 286 284 284 283 283 282 282 282 282 282 282 283 283
307 304 304 301 300 298 297 297 298 296 297 298 297 297 296 296 296 295 295 294 294 293 293 292 291 290 289 288 287 286 285 284 283 284 282 282 281 281 282 282 283 283 283
307 305 303 299 298 296 297 297 296 297 298 297 296 296 296 296 296 295 295 294 293 293 292 291 290 289 289 287 287 286 285 284 284 283 282 282 282 282 282 282 282 283 283
307 304 300 297 297 297 297 295 296 297 297 296 295 295 296 296 295 295 294 294 293 292 292 291 290 289 288 287 286 285 285 284 284 283 283 283 283 283 283 283 283 283 284
301 299 297 297 296 296 295 296 296 296 296 295 295 295 295 295 295 295 294 294 293 292 291 290 290 289 288 287 286 285 284 284 284 283 283 284 283 283 284 284 284 284 284
297 296 296 296 296 294 296 295 295 295 295 295 295 295 295 295 294 293 292 292 292 292 291 290 289 288 287 286 286 284 284 284 284 284 283 283 283 283 284 284 284 283 283
295 296 295 296 295 296 296 295 295 295 294 294 294 294 294 294 294 293 293 291 290 289 288 288 289 288 287 286 285 283 283 283 283 283 282 283 283 283 284 284 284 283 284
295 296 296 296 297 297 296 296 294 294 293 293 293 293 293 293 293 293 292 292 290 290 288 286 286 286 286 285 284 283 283 283 283 283 283 283 283 283 284 284 284 284 284
299 298 297 297 297 297 296 294 292 291 291 292 292 292 292 292 293 293 292 292 291 291 289 287 286 285 284 283 282 281 282 283 283 283 283 283 283 283 283 283 285 285 284
297 296 296 296 295 295 294 292 291 291 291 291 291 291 291 291 291 291 291 290 290 291 290 287 284 283 282 282 281 281 282 283 283 283 283 282 282 282 283 283 284 284 284

GFSMA_925_thetae_039.txt.gz
Theta_e
325 324 324 323 322 322 321 320 318 317 315 314 313 310 308 307 307 307 309 307 305 311 317 317 316 313 311 312 309 307 306 305 305 306 306 304 303 302 302 301 301 300 300
326 325 324 323 322 322 321 320 318 315 314 313 311 307 306 306 307 307 307 310 304 302 311 317 315 313 310 309 307 306 306 304 304 303 303 303 303 303 301 301 300 299 299
326 326 325 323 322 321 320 318 316 314 313 310 308 306 306 306 306 306 307 307 310 305 309 314 314 311 310 308 306 305 304 303 302 302 302 302 302 302 301 300 300 299 298
327 326 324 323 322 320 319 317 315 313 311 309 308 307 306 305 305 305 306 307 306 308 306 310 309 307 305 303 303 302 302 301 301 301 301 301 302 301 301 301 301 300 298
327 326 324 323 321 320 318 316 314 312 310 308 308 307 307 306 305 303 305 306 305 305 307 305 307 306 305 302 298 298 298 298 299 299 299 298 298 298 298 298 298 298 297
325 325 324 322 321 319 317 314 312 310 308 309 308 307 308 306 304 304 304 303 303 303 302 304 302 301 300 298 295 295 296 297 297 297 296 296 296 296 296 296 296 297 297
325 325 324 321 319 317 316 313 312 309 309 309 310 311 309 306 305 304 303 302 301 301 300 300 300 299 298 297 295 294 295 295 295 294 295 295 295 295 295 296 296 296 296
324 324 322 320 318 317 314 313 310 309 311 309 311 311 313 309 306 304 303 302 302 301 300 299 299 299 298 297 296 294 293 291 293 294 294 294 294 295 295 294 294 294 295
323 322 320 319 317 316 314 312 310 310 312 311 309 309 310 310 308 306 304 303 301 301 300 300 298 298 297 297 296 296 293 292 291 292 293 293 293 293 293 293 293 293 293
322 320 318 317 316 315 313 311 309 311 311 311 310 308 306 305 306 306 305 303 302 301 301 300 299 298 298 297 296 295 294 292 292 290 291 291 291 290 290 290 291 291 291
318 317 317 317 315 313 310 309 308 310 308 309 308 307 306 305 304 304 305 304 303 301 299 299 298 298 297 297 296 295 294 292 290 289 289 289 288 288 288 289 289 290 290
318 317 316 314 313 309 308 308 309 308 309 308 304 305 304 304 304 304 304 302 301 301 300 299 298 297 297 296 295 294 292 291 290 288 287 287 287 287 287 288 288 288 289
318 317 314 311 309 307 308 309 309 307 307 304 305 302 303 303 302 301 300 300 300 300 299 298 297 296 296 296 295 293 292 290 289 287 287 286 286 285 286 286 287 287 288
318 314 312 309 307 307 307 308 304 306 303 305 303 302 303 302 300 300 299 299 300 299 298 298 297 297 296 295 294 293 292 291 289 287 286 285 285 285 285 285 286 286 286
314 312 311 307 306 307 306 304 305 302 302 302 301 304 303 301 300 299 299 298 298 299 298 297 296 296 295 294 294 292 291 290 288 287 286 284 284 284 284 284 284 285 285
310 309 308 307 306 305 304 304 302 302 301 301 303 302 301 301 299 298 297 297 296 297 298 296 295 295 294 293 293 291 290 289 288 287 285 284 284 284 284 283 283 284 284
310 309 308 307 305 305 304 303 300 299 301 302 301 301 300 299 298 297 297 296 296 296 296 295 295 294 294 293 292 291 290 289 288 286 285 284 283 283 282 283 283 283 283
313 312 308 305 304 305 303 299 297 300 299 299 299 299 299 299 297 297 297 296 296 296 295 296 295 294 293 292 291 291 289 288 287 286 285 284 283 283 283 283 283 283 283
313 310 306 305 305 301 299 297 299 298 299 298 298 299 298 298 297 297 297 297 296 296 295 295 295 293 292 291 291 290 289 288 287 286 285 285 284 284 284 283 283 283 284
310 309 307 305 301 299 297 298 297 297 297 298 299 298 297 297 297 297 297 297 296 296 295 295 294 293 292 291 290 289 289 288 287 286 286 285 285 285 284 284 284 284 284
309 307 304 300 299 297 297 297 296 297 298 297 296 297 298 297 297 296 296 297 296 296 295 295 294 293 292 292 290 289 288 288 286 286 286 285 285 285 285 285 285 285 285
302 302 299 298 297 297 296 296 297 299 297 296 295 297 296 296 297 296 296 295 295 295 295 295 294 293 292 291 290 289 288 287 286 285 286 285 285 285 285 285 285 285 284
298 298 297 297 296 296 296 296 296 296 296 296 295 295 297 295 295 295 295 295 294 294 293 292 293 293 292 291 289 288 288 286 285 285 285 285 285 285 285 285 285 284 284
298 296 296 296 298 298 297 297 297 297 295 295 295 294 294 294 294 294 294 294 295 294 293 291 289 290 291 290 289 288 287 285 284 285 285 286 285 285 284 284 284 284 284
299 299 300 299 298 298 297 297 295 294 293 293 293 293 293 293 293 292 292 293 294 294 293 292 291 290 289 288 287 286 285 284 285 285 285 285 285 284 284 284 284 284 285
299 298 298 297 297 296 296 294 292 292 292 292 292 292 292 292 292 292 291 291 292 293 293 292 291 289 288 287 286 284 284 284 284 285 285 285 284 283 284 283 284 283 284

GFSMA_925_thetae_042.txt.gz
Theta_e
322 320 322 322 321 321 320 320 319 317 315 314 312 309 307 307 307 308 309 308 305 314 319 317 316 314 313 312 308 307 307 306 305 305 305 304 303 303 302 302 301 300 300
325 324 325 323 323 322 321 320 318 316 314 313 310 307 306 306 307 307 310 309 307 302 311 318 316 314 312 311 308 306 306 304 304 303 303 303 303 303 303 301 301 301 300
325 326 324 324 323 322 321 320 318 314 313 311 308 307 306 306 306 306 307 310 309 303 304 315 315 313 311 308 307 306 304 303 302 302 302 302 302 303 302 302 302 302 300
326 325 326 324 323 322 320 319 316 314 313 310 308 307 307 306 306 305 307 307 310 308 304 310 312 311 308 306 304 303 302 301 301 301 301 301 300 300 300 300 300 300 299
327 326 325 324 323 321 320 318 315 314 311 309 309 308 308 307 306 304 306 306 305 307 309 307 307 309 308 306 304 302 299 299 299 299 299 298 298 297 297 297 298 298 298
328 327 326 324 322 321 319 317 315 312 311 310 310 308 308 308 306 304 304 305 303 305 304 305 303 301 302 303 299 297 296 298 298 298 297 296 296 296 296 297 297 297 297
327 326 325 323 322 321 318 317 313 311 308 310 310 311 310 309 306 305 304 304 302 302 301 301 301 301 300 298 297 296 296 296 295 295 295 296 296 296 296 296 296 296 296
326 325 325 323 322 320 318 315 313 312 310 311 311 311 311 308 307 306 304 303 302 302 301 300 300 300 299 298 297 296 296 295 294 294 295 294 295 295 295 295 294 294 294
326 325 325 323 321 319 317 314 313 311 311 311 310 310 309 308 307 306 305 304 302 302 301 300 300 299 298 298 297 297 295 293 293 293 292 293 294 293 293 292 292 292 292
327 325 323 322 319 318 316 314 312 310 311 312 311 310 309 306 305 303 305 304 303 302 301 301 300 299 299 298 298 297 295 294 293 293 292 292 292 291 291 290 291 291 291
326 324 322 320 318 317 315 315 313 310 312 311 310 309 309 307 306 304 302 304 304 303 302 301 300 299 299 298 297 297 296 295 293 292 291 291 290 290 290 289 289 290 290
323 322 319 317 318 316 315 311 309 310 310 309 310 306 306 305 305 305 303 304 303 303 302 300 299 298 298 297 297 296 295 294 293 292 290 289 289 289 288 288 288 289 289
321 320 319 317 317 316 313 309 309 309 309 309 306 306 304 303 303 303 301 301 300 300 300 300 299 298 297 297 296 296 294 293 292 291 290 288 288 288 287 287 287 287 288
321 320 319 317 316 314 312 308 310 310 308 306 304 304 303 303 303 302 300 300 298 299 299 299 299 299 298 296 296 295 294 292 292 290 289 288 287 287 286 286 286 286 286
322 322 319 317 314 312 308 308 309 308 306 304 304 302 303 304 302 300 300 299 299 297 297 298 298 297 296 295 295 294 293 292 291 290 289 288 287 286 286 285 285 285 285
323 322 318 316 313 310 307 308 308 305 303 303 301 302 303 302 301 301 299 299 298 297 296 297 297 296 295 295 294 293 292 291 291 290 289 288 287 285 284 285 284 284 284
323 319 316 313 310 307 307 306 305 304 302 301 302 302 301 301 301 300 299 298 297 297 296 296 296 295 295 294 294 293 292 291 290 289 288 287 286 285 285 284 283 284 284
321 317 312 309 307 307 306 305 303 301 299 301 300 300 299 300 300 300 299 298 297 297 297 296 296 295 295 295 293 292 292 291 290 289 288 287 286 285 284 284 284 284 284
317 314 311 309 307 306 305 304 302 298 299 299 299 300 299 299 299 299 298 298 298 297 297 296 296 296 295 295 293 292 291 291 289 289 288 287 286 285 285 285 284 284 284
315 313 310 308 306 305 303 300 299 299 298 299 299 298 299 298 298 298 298 298 297 297 297 297 296 295 295 294 293 292 291 290 289 289 287 286 286 286 286 285 285 285 285
313 311 309 306 304 302 300 299 298 298 298 298 298 297 297 297 298 298 298 297 297 296 296 296 295 295 295 294 293 292 291 290 289 288 287 286 286 286 285 285 285 285 285
309 308 306 303 301 300 298 298 298 298 297 298 297 296 296 296 296 297 296 297 297 296 295 295 295 295 294 294 293 292 290 289 287 288 287 286 285 285 284 285 285 285 284
302 301 300 299 298 298 297 297 297 296 297 296 296 296 295 295 297 296 295 294 294 295 295 295 294 294 294 294 293 292 290 289 288 287 286 285 285 285 285 285 285 284 284
299 299 298 297 297 297 297 297 296 296 296 296 296 295 294 294 294 294 293 293 292 292 293 294 294 294 293 293 292 292 290 289 288 286 285 284 285 285 285 285 284 284 284
298 298 298 298 299 298 298 297 296 295 294 293 293 292 292 292 291 290 290 289 290 291 292 292 291 292 293 292 291 291 289 287 285 285 285 285 285 285 285 284 283 283 283
300 300 299 298 297 297 296 296 294 292 291 291 290 289 289 288 288 288 286 284 284 286 287 289 290 291 291 291 290 289 288 286 285 284 284 285 285 284 283 283 283 283 283

GFSMA_925_thetae_045.txt.gz
Theta_e
317 318 319 319 320 319 318 319 319 316 314 313 310 307 306 307 307 309 308 307 306 312 319 318 316 315 314 311 309 309 307 306 305 304 304 304 303 303 303 302 301 301 301
318 321 321 322 321 320 319 320 318 315 314 312 308 306 306 307 307 307 308 309 307 307 316 317 317 315 314 310 308 307 306 305 304 303 303 303 303 304 303 302 302 302 301
325 324 325 323 322 322 321 320 318 315 312 311 308 307 306 306 306 306 307 309 307 304 304 316 316 314 314 311 308 308 305 303 302 302 302 303 302 301 301 301 301 301 300
325 325 324 324 323 322 321 320 317 314 313 310 308 307 306 306 306 305 307 308 311 306 303 310 313 314 312 310 307 305 303 302 301 301 301 300 299 299 298 298 298 299 298
324 325 324 324 323 322 321 320 318 314 313 310 309 308 307 307 306 305 306 306 305 306 308 308 310 310 310 307 305 303 302 300 300 300 299 298 298 298 297 298 298 297 297
317 321 325 323 323 322 321 319 317 314 312 310 309 309 308 308 306 305 304 305 305 305 305 305 305 302 302 305 304 300 298 298 298 298 297 297 297 297 297 296 296 296 296
323 325 325 325 323 322 320 319 316 314 310 309 309 310 309 308 307 305 304 304 303 303 303 301 302 301 301 301 299 298 298 298 297 296 296 296 296 296 295 295 295 295 295
323 325 324 324 323 323 320 318 317 312 312 309 310 311 308 308 307 306 304 304 303 302 302 301 300 300 299 299 298 297 298 298 296 295 294 293 294 295 294 294 294 294 293
325 325 325 325 323 323 321 318 316 313 312 310 310 311 306 305 306 307 306 304 303 302 301 301 301 300 299 298 298 297 297 296 295 295 294 293 294 294 293 293 292 292 292
326 326 325 325 324 322 320 318 315 313 312 311 310 310 309 307 303 302 306 305 303 302 302 302 301 300 299 299 298 298 297 296 295 294 294 293 293 293 292 292 291 291 291
325 326 325 324 323 321 319 317 314 314 313 311 311 310 309 308 306 304 301 303 304 304 303 302 302 301 300 299 298 297 297 296 296 294 294 292 293 292 291 291 291 290 290
327 327 325 323 322 320 318 316 315 314 311 312 311 310 308 307 306 305 301 302 302 302 303 303 302 301 300 299 298 298 297 296 296 294 292 291 292 291 291 290 289 289 289
326 325 324 323 320 319 318 316 314 312 310 311 310 310 306 304 304 303 302 300 299 300 300 299 299 301 299 298 298 297 296 296 295 293 292 291 290 290 289 289 288 288 288
324 322 323 322 320 318 317 316 312 310 309 309 309 307 306 303 303 303 302 300 297 297 299 299 298 298 298 298 297 296 296 295 294 292 292 291 290 288 289 288 287 287 287
325 324 323 321 321 318 317 316 312 312 309 309 308 305 304 303 303 301 300 300 299 295 295 298 298 297 297 296 296 296 296 294 293 293 292 290 289 289 288 288 287 286 286
325 324 322 321 320 318 316 314 312 310 309 307 304 304 302 302 302 302 302 301 299 298 294 297 297 297 297 296 295 295 294 294 293 292 291 290 289 288 287 286 286 286 285
324 324 323 321 318 316 313 312 308 308 306 303 302 301 301 301 301 302 300 301 300 299 297 296 296 296 296 295 295 295 293 292 292 291 291 290 289 288 288 287 285 284 284
325 324 322 319 316 314 312 310 307 306 303 303 301 302 301 302 301 299 300 300 299 298 297 295 296 296 296 296 295 295 294 293 292 291 291 290 289 288 287 286 285 285 285
325 322 319 316 312 311 309 307 305 304 302 301 301 301 302 301 299 298 298 298 298 298 298 297 296 296 297 296 296 295 295 293 292 291 291 289 288 287 286 286 285 285 285
322 317 316 313 310 308 307 305 304 301 299 300 300 300 299 299 298 297 297 297 298 297 297 297 296 296 296 296 296 295 294 294 293 291 290 289 288 287 286 285 286 285 284
317 316 313 311 308 306 305 304 302 300 301 299 299 298 299 298 296 296 296 296 296 297 296 295 294 294 294 294 294 294 293 293 293 291 289 288 287 286 286 286 285 285 284
314 312 309 307 306 305 303 301 301 299 298 297 299 298 297 296 296 295 295 296 296 295 294 294 293 293 293 294 294 294 293 291 289 290 288 288 287 287 285 285 284 285 285
310 309 307 305 303 300 301 300 298 297 297 297 297 297 296 295 294 293 292 292 292 292 291 291 291 291 292 293 293 292 292 291 290 290 289 287 288 286 285 284 285 285 285
305 302 300 299 298 298 297 297 297 297 296 296 296 295 293 291 290 290 289 289 289 288 287 287 287 289 290 290 290 291 291 291 290 290 288 287 286 286 286 284 285 285 284
299 299 298 297 297 297 298 297 297 296 295 293 292 292 291 289 287 287 286 284 281 280 281 283 284 283 283 282 282 287 290 289 289 287 287 286 286 285 284 285 284 284 283
297 297 297 299 298 297 297 296 295 294 292 291 290 288 286 283 283 282 281 281 281 283 284 285 285 285 285 284 285 287 288 290 289 286 286 285 285 284 284 284 284 283 283

GFSMA_925_thetae_048.txt.gz
Theta_e
317 317 318 319 319 318 317 319 318 315 313 311 308 306 307 307 308 308 308 312 316 319 318 318 317 316 314 311 311 309 307 306 305 304 304 304 304 304 303 302 302 302 302
316 317 318 318 320 318 318 319 318 315 313 312 308 306 307 307 307 308 308 307 309 312 318 318 317 316 315 311 309 308 306 305 304 304 303 303 304 303 302 301 301 301 301
317 318 320 320 320 319 319 319 317 315 314 311 307 305 306 307 306 306 307 309 308 306 309 317 318 316 315 311 308 308 305 304 303 303 303 303 301 300 300 299 299 299 299
322 322 324 322 321 322 320 319 318 315 313 311 308 307 307 306 306 305 306 307 308 308 304 314 315 315 315 312 309 309 305 303 302 302 302 301 299 299 298 298 298 298 298
324 323 323 323 323 322 321 321 318 315 312 311 308 307 307 306 306 306 305 306 306 307 306 306 312 313 312 311 309 307 305 302 301 300 300 299 298 298 298 298 297 297 297
321 324 325 324 323 322 321 319 317 315 314 312 308 308 307 307 307 307 305 306 306 305 306 308 307 307 307 307 308 306 304 301 300 300 298 297 298 297 296 296 296 296 296
321 321 322 323 323 322 321 320 319 316 314 310 308 309 307 307 307 307 305 305 305 305 305 304 303 304 302 302 305 304 301 300 299 298 297 297 295 294 295 295 295 295 295
318 321 323 324 324 323 321 321 320 316 311 310 309 309 307 309 308 306 305 304 304 304 303 302 301 302 301 300 301 301 300 300 299 298 297 296 294 294 295 295 294 294 294
317 321 321 324 323 324 321 321 319 317 313 310 309 310 306 307 305 307 306 305 304 303 303 302 301 300 300 300 299 299 298 298 299 298 298 296 295 295 295 294 294 293 293
321 320 321 323 324 324 321 322 319 317 316 311 310 309 309 307 304 303 306 306 304 303 303 302 301 300 301 300 299 298 298 297 297 298 298 297 296 295 295 294 293 293 293
321 319 322 324 325 324 322 322 320 316 315 313 310 310 309 309 307 303 303 303 305 304 303 302 302 301 301 300 299 298 298 298 297 297 298 297 296 295 294 293 293 292 292
318 321 322 325 324 324 323 322 320 316 314 313 312 311 310 309 307 304 302 302 302 304 304 304 303 302 301 301 300 299 298 298 297 297 296 296 296 295 294 293 292 292 291
322 324 325 325 325 324 323 320 319 316 313 315 312 311 311 311 308 305 304 302 300 300 300 300 300 299 300 301 300 299 299 298 297 296 295 295 294 294 293 292 291 291 289
323 325 325 324 324 323 321 319 317 315 314 313 311 312 310 310 304 303 302 301 298 297 299 299 299 299 298 299 299 299 298 297 297 296 295 293 292 292 291 291 291 290 288
325 325 325 325 324 321 320 318 317 315 313 311 311 309 308 306 303 303 300 300 299 299 297 299 298 298 297 297 297 296 296 297 296 296 294 293 292 291 290 290 290 289 288
325 325 324 323 323 321 319 318 316 313 311 310 310 308 304 303 303 301 302 302 302 300 297 297 297 298 299 297 296 296 295 295 295 295 294 293 292 291 290 289 289 288 287
326 325 325 324 322 320 320 318 315 312 310 310 307 305 304 304 302 302 302 301 301 300 298 299 298 299 296 296 296 296 296 295 295 294 293 293 292 291 290 289 288 286 286
326 325 324 323 321 320 319 315 312 311 310 307 305 303 303 301 302 302 300 299 299 298 297 295 296 297 297 297 297 297 296 295 295 294 293 292 292 291 290 289 287 287 286
326 324 324 323 321 320 317 313 311 310 307 304 303 303 302 302 301 299 299 298 296 296 297 297 296 296 296 297 296 297 297 297 296 295 294 292 292 291 290 289 288 286 286
325 324 324 323 321 318 315 312 309 306 304 303 303 302 301 300 300 300 298 297 295 295 296 296 295 295 295 295 295 295 294 294 294 295 294 294 292 291 290 288 287 286 286
325 323 322 319 315 313 310 307 305 304 303 302 301 300 300 298 299 297 296 295 294 294 294 294 293 293 292 293 292 293 293 293 293 293 292 292 291 290 289 287 286 287 285
321 320 316 314 311 308 307 306 305 303 301 300 299 298 298 299 297 295 294 293 291 290 290 289 289 290 290 290 291 291 291 291 291 291 291 290 288 288 288 287 288 287 285
315 313 312 309 307 306 305 304 303 300 300 298 298 298 297 296 294 293 291 291 290 289 285 283 284 285 286 285 286 287 288 289 290 290 291 289 289 288 288 287 289 285 284
310 308 306 305 305 304 302 301 299 298 297 297 296 296 294 291 290 289 288 286 284 281 281 282 284 284 284 285 285 284 285 285 285 286 289 289 289 287 288 288 285 284 285
306 304 303 302 301 300 299 298 297 296 296 295 293 291 290 289 286 284 282 280 280 282 282 282 282 283 283 284 284 284 284 284 285 286 288 288 289 287 286 285 285 284 284
301 299 298 298 297 297 296 296 296 296 295 292 290 288 286 284 281 280 280 281 282 282 281 279 280 282 283 283 283 284 284 285 285 286 287 287 286 285 284 285 285 284 283

GFSMA_925_thetae_051.txt.gz
Theta_e
316 317 318 318 317 316 318 318 316 315 312 308 308 308 308 308 308 309 309 313 318 318 317 318 317 316 313 313 311 309 308 306 305 305 304 304 305 303 303 302 302 302 301
317 317 318 318 317 317 318 318 318 315 312 308 306 306 307 307 307 308 308 309 317 318 318 318 318 317 315 312 311 309 307 306 305 304 304 304 303 302 301 300 300 300 300
317 318 318 318 318 317 319 319 318 314 312 308 306 306 306 307 307 306 307 307 309 311 317 317 318 318 316 312 310 309 306 306 304 303 304 303 301 300 299 299 299 299 299
316 316 317 318 319 318 319 319 317 314 313 310 307 305 306 306 306 306 306 308 307 307 306 313 316 316 316 314 311 310 307 305 303 303 303 301 300 299 299 299 298 298 298
317 317 320 320 320 320 320 320 317 315 314 311 308 307 306 306 306 306 306 307 307 307 307 305 309 314 314 312 312 311 308 305 303 302 301 300 298 298 298 297 297 297 297
321 322 323 323 322 322 321 320 318 316 314 312 309 307 306 306 306 306 306 306 306 305 305 305 306 311 312 312 312 310 308 306 303 301 301 299 298 296 294 296 296 296 296
322 324 324 323 323 323 322 321 319 316 313 312 308 307 306 306 306 306 305 306 306 305 305 304 305 306 308 307 305 307 307 305 302 301 301 299 298 296 295 295 296 295 295
316 320 320 321 324 323 322 320 319 316 315 313 309 308 307 309 308 307 305 305 305 305 305 304 304 303 302 303 301 302 306 304 302 302 300 299 298 297 296 296 295 295 294
314 314 319 323 323 323 322 320 319 319 315 312 310 310 307 307 306 308 306 304 304 304 304 305 304 302 302 302 301 300 300 301 302 302 301 300 299 297 297 296 295 295 294
314 314 317 319 321 323 324 323 321 319 318 312 308 309 309 309 305 305 305 306 306 305 304 303 303 302 301 301 300 300 300 299 299 300 301 301 300 298 298 297 296 295 295
314 314 317 320 319 322 322 323 322 319 318 315 312 310 308 307 308 305 306 306 305 306 305 303 303 302 301 301 300 300 299 299 298 298 299 300 300 299 298 297 296 295 295
314 313 317 321 321 323 323 324 322 320 320 315 315 314 310 310 307 305 303 304 303 305 305 305 304 303 301 301 300 300 299 299 298 298 298 299 300 299 299 298 296 295 294
314 315 317 319 321 321 323 324 323 321 320 317 315 313 311 312 310 308 306 303 302 302 302 302 301 301 301 300 299 300 300 299 298 298 298 297 298 299 299 297 296 295 294
320 320 320 318 320 322 323 320 323 322 320 318 314 312 313 311 310 309 304 302 300 298 298 300 300 301 300 299 298 298 298 298 298 298 297 297 296 296 297 296 296 294 293
319 319 318 320 321 323 324 323 323 321 319 317 314 313 312 311 310 306 303 303 300 299 300 302 301 302 299 297 298 298 297 296 296 296 297 297 296 295 295 294 294 293 292
320 322 322 321 323 324 324 323 322 319 317 315 314 311 310 309 306 304 303 303 301 301 301 301 300 300 300 300 299 297 296 296 295 295 295 295 295 295 294 293 292 292 292
323 324 323 323 324 324 323 321 319 318 317 314 311 310 309 307 304 303 303 302 302 301 298 299 299 298 298 298 298 298 297 297 296 296 294 294 294 295 294 293 292 291 289
324 323 324 324 322 323 322 321 318 317 316 311 310 309 306 303 304 303 302 301 299 298 296 295 296 296 297 297 297 296 296 296 296 296 296 296 296 296 294 293 292 291 290
324 323 323 323 322 321 320 319 317 318 314 311 309 307 304 304 303 301 300 299 298 297 296 294 294 295 295 295 294 294 293 293 293 293 293 294 294 294 293 294 293 292 290
325 324 324 324 322 322 319 317 317 315 311 309 307 305 304 303 301 300 300 298 296 295 293 293 293 292 292 292 292 292 291 291 291 292 292 292 293 293 293 292 292 292 291
326 325 321 324 322 320 316 316 314 311 308 306 303 303 302 301 300 299 297 297 295 293 291 290 290 289 289 289 289 289 288 287 288 288 289 290 291 291 291 292 291 291 291
323 320 320 321 319 316 315 316 313 309 306 304 303 301 300 299 298 297 297 295 293 290 289 287 286 284 284 283 283 283 284 285 285 285 287 287 287 289 290 290 290 290 290
319 318 316 315 315 315 313 311 308 305 304 302 301 299 298 297 296 295 293 291 290 288 285 281 281 282 282 283 283 283 283 283 283 284 284 284 284 285 287 289 289 287 288
317 315 314 314 311 309 308 307 305 302 301 299 298 297 296 294 291 290 290 288 286 282 281 282 282 282 281 282 282 283 283 283 283 284 284 284 284 285 286 288 288 287 287
311 311 310 308 307 305 303 302 301 299 297 296 295 294 292 290 287 288 286 282 280 281 282 281 280 279 279 279 281 282 283 283 283 283 284 284 284 285 287 287 288 286 286
307 306 304 303 302 301 299 299 298 297 295 293 290 288 291 288 285 281 280 280 282 281 280 278 277 277 277 278 278 279 280 281 282 282 283 284 285 286 286 285 285 285 284

GFSMA_925_thetae_054.txt.gz
Theta_e
316 316 316 314 314 315 317 314 313 312 312 315 312 311 310 310 311 313 315 317 317 318 319 318 317 316 314 312 311 310 308 307 306 306 305 305 304 303 302 302 301 301 301
317 317 317 316 316 317 317 315 315 312 309 308 309 309 309 308 309 309 311 313 316 317 318 319 318 317 315 314 311 309 308 306 305 305 304 305 303 302 301 301 301 300 300
317 317 317 317 317 318 317 316 314 312 310 306 306 307 307 307 307 308 308 308 312 317 317 317 318 319 316 313 312 310 307 306 305 304 305 303 301 300 300 300 299 299 299
317 317 318 317 317 317 318 317 317 312 310 308 306 306 306 307 307 306 306 307 307 310 316 317 315 315 316 314 312 311 309 307 305 304 305 302 300 299 298 297 298 298 298
317 318 318 318 318 317 318 319 317 315 312 309 306 306 306 307 307 306 306 306 307 307 307 308 313 315 315 315 314 312 310 308 305 304 303 302 300 299 296 294 297 297 297
317 316 317 318 319 317 318 319 319 316 313 311 307 306 306 306 306 306 306 307 306 307 307 306 306 311 313 312 313 312 311 310 307 304 303 302 300 299 296 295 295 296 296
316 317 318 319 319 319 321 319 318 316 314 312 308 306 305 305 305 305 305 306 306 306 306 305 305 305 308 310 310 311 310 308 308 306 303 302 300 299 297 295 295 295 295
321 322 322 323 322 321 322 321 320 317 315 312 310 307 306 307 306 306 306 305 305 306 305 305 305 304 304 304 304 305 306 307 307 306 304 303 301 300 298 297 297 296 296
319 319 320 321 323 323 323 322 321 320 317 313 311 311 306 307 306 308 307 306 305 305 305 305 305 304 303 303 302 302 301 301 304 305 304 303 302 301 299 298 298 297 296
317 314 314 319 323 322 323 322 321 320 317 314 309 309 310 309 306 307 305 308 306 305 305 306 305 305 304 303 302 303 302 300 300 301 303 303 303 302 301 300 299 298 297
316 314 314 314 315 319 320 322 322 319 317 316 314 310 308 307 306 307 308 306 305 306 306 306 305 304 304 304 302 302 301 300 300 300 299 301 303 302 302 301 300 299 298
315 315 314 314 314 314 319 320 322 322 321 319 316 313 311 309 307 307 305 306 305 306 307 307 306 305 303 302 301 301 301 300 300 300 299 298 300 301 301 302 301 300 299
315 315 315 316 315 314 315 320 322 323 322 321 319 317 315 312 313 310 309 305 305 305 304 303 303 302 301 300 300 299 299 299 299 299 299 298 298 298 299 300 300 300 299
315 315 315 316 315 314 314 319 321 323 322 322 321 319 316 313 311 311 311 306 300 299 299 302 300 301 300 303 303 298 297 298 298 297 297 296 297 297 297 298 298 298 298
314 315 316 315 314 316 319 318 320 322 320 320 321 321 316 313 310 311 312 309 305 302 300 300 301 302 303 302 300 299 299 299 296 296 296 295 295 295 296 297 297 297 297
315 318 320 320 319 319 319 320 319 321 322 320 322 319 316 313 311 311 309 307 304 303 302 302 302 302 302 301 299 298 298 297 297 297 297 296 296 295 295 295 296 296 296
319 319 320 320 319 321 321 321 321 321 320 321 319 316 315 312 311 308 305 303 303 302 300 300 300 299 298 298 297 297 297 296 296 295 295 295 296 296 296 296 295 295 295
319 320 320 320 320 322 322 321 320 321 319 317 316 313 313 310 308 305 303 303 302 301 299 297 295 296 296 296 296 295 295 294 293 293 293 293 292 292 293 293 293 294 294
319 319 319 320 323 323 320 320 320 319 318 317 315 314 312 308 305 303 303 302 300 298 296 295 294 294 293 294 293 292 291 291 290 290 289 288 289 289 290 291 291 292 292
320 321 321 322 322 323 321 320 320 318 319 315 314 312 309 307 305 304 302 300 298 297 295 293 292 291 291 290 289 288 286 284 283 283 283 283 284 284 286 287 288 290 290
321 321 322 321 321 321 321 321 321 318 315 313 312 308 307 305 304 303 300 299 297 295 293 291 289 289 288 286 284 283 283 283 283 283 284 284 284 285 284 285 286 285 288
322 322 322 321 319 319 320 322 321 315 312 309 306 304 303 303 301 299 298 297 296 294 291 289 288 285 283 282 282 282 282 282 283 283 284 283 283 284 284 284 284 285 285
322 322 322 320 317 317 318 317 313 312 309 305 304 302 300 299 299 297 296 294 292 291 289 287 283 281 282 282 281 281 281 281 282 282 282 283 283 283 284 284 284 285 286
320 319 320 317 315 314 313 311 309 308 305 303 302 301 299 296 295 294 292 291 288 285 283 282 282 282 281 280 281 282 282 282 282 282 282 283 283 283 283 284 284 285 286
316 314 312 311 310 308 307 306 306 303 301 299 299 298 297 294 291 291 290 286 282 281 281 281 280 279 278 278 278 280 279 280 280 280 280 281 282 283 283 284 285 286 286
308 306 305 305 305 303 301 302 303 300 297 295 293 291 290 289 288 288 285 281 281 281 280 279 278 277 277 277 277 277 277 277 277 278 281 280 280 281 284 284 285 285 286

GFSMA_925_thetae_060.txt.gz
Theta_e
323 322 323 325 324 324 324 322 322 322 319 318 317 318 319 319 320 319 319 318 318 320 319 317 315 314 313 313 311 311 310 309 308 308 306 305 304 303 303 303 302 302 301
321 321 320 320 321 323 323 321 320 320 318 317 317 317 318 319 319 320 319 318 318 319 320 319 317 316 315 313 312 311 310 309 308 308 306 304 303 302 301 301 301 300 300
320 320 319 318 319 319 319 319 319 318 318 317 317 317 317 318 318 319 319 319 317 318 319 320 319 318 317 315 313 311 309 308 308 307 307 304 302 299 297 296 295 296 298
317 318 318 318 317 317 317 318 318 317 316 316 316 316 316 316 317 318 318 318 318 317 317 319 319 318 318 316 314 312 310 308 308 307 307 305 302 299 298 296 295 294 295
316 318 318 319 319 317 316 316 315 314 314 313 314 313 314 314 314 314 314 315 316 316 316 316 317 317 317 317 316 314 312 310 308 307 307 306 303 301 299 297 296 295 294
320 319 318 319 320 319 318 317 316 315 313 312 311 312 312 312 312 311 311 312 312 313 314 316 315 315 316 316 316 315 314 313 311 308 307 307 305 303 302 299 297 297 296
321 321 320 320 321 320 320 319 319 317 315 313 311 311 311 311 310 310 311 311 312 312 312 312 313 315 316 314 315 316 314 314 314 312 309 307 307 305 303 302 300 299 298
321 321 321 321 320 321 321 321 319 319 317 313 316 317 318 314 312 311 311 311 311 312 312 312 311 312 314 316 315 313 314 313 312 312 312 311 308 307 305 304 303 301 300
323 321 320 321 321 321 322 322 321 320 320 317 317 320 322 322 321 316 313 312 310 311 311 311 308 310 312 312 312 313 313 311 310 310 309 309 310 309 307 306 305 304 302
323 322 320 322 323 322 322 322 322 322 321 321 317 317 319 320 322 322 315 313 311 309 309 309 309 311 311 311 311 311 311 307 304 305 306 307 306 306 307 308 307 305 305
322 321 320 323 323 321 322 322 322 321 322 322 321 320 318 318 316 317 319 317 312 311 309 309 310 311 311 311 310 310 308 306 304 304 304 304 304 306 306 306 307 307 306
320 319 317 320 322 319 317 316 318 322 322 322 322 321 321 319 318 316 313 314 316 313 311 311 312 312 310 310 310 308 306 305 304 303 302 302 301 301 302 305 306 306 305
319 319 319 321 319 316 315 315 316 320 321 323 322 322 321 320 320 316 312 313 314 314 314 312 312 311 310 309 307 306 304 303 303 301 301 301 301 299 299 299 302 303 304
318 318 318 318 318 316 315 318 320 320 321 322 322 322 322 322 320 317 317 313 312 313 314 313 311 309 309 307 306 305 303 302 302 303 303 300 298 298 298 297 296 296 297
317 317 318 317 318 319 318 319 319 319 320 321 322 322 322 322 321 318 318 316 313 316 317 314 310 307 306 306 305 302 303 302 302 301 301 300 299 297 296 297 297 297 297
319 319 318 317 317 319 319 320 320 320 320 321 322 322 322 321 321 318 317 318 314 314 316 316 309 307 306 302 302 302 303 302 301 300 299 298 298 298 297 297 296 295 295
320 320 320 319 319 318 319 319 319 319 319 320 322 322 321 320 319 318 316 315 313 312 313 314 307 305 302 301 301 302 302 301 301 299 297 297 296 295 295 293 292 292 291
321 320 320 320 320 320 319 319 320 319 320 321 322 322 321 320 319 318 315 313 311 311 311 311 305 304 302 302 301 300 300 299 299 298 296 294 291 290 287 286 285 285 285
320 321 320 320 320 320 320 320 319 320 321 322 321 320 319 319 318 317 314 311 309 308 307 306 305 301 300 299 298 298 298 299 297 294 291 287 286 286 286 285 285 284 284
319 319 319 319 320 320 319 319 319 320 320 320 319 317 317 318 317 315 313 311 307 305 304 301 300 299 297 297 297 297 298 296 293 290 288 288 287 287 286 286 286 285 285
319 319 319 319 319 320 320 320 321 321 319 318 318 317 318 318 317 316 312 310 305 303 300 300 297 296 295 295 294 295 294 293 290 289 289 289 289 288 288 288 287 287 286
318 318 319 319 319 320 320 320 320 321 320 318 318 317 316 318 316 312 311 310 306 300 298 297 294 294 294 293 294 292 291 289 290 289 289 288 288 287 288 288 287 285 284
319 319 319 320 320 321 321 320 320 320 320 318 318 316 313 312 311 308 304 302 299 299 301 298 294 293 293 291 290 289 288 288 288 288 287 287 287 287 288 287 286 285 285
320 321 321 321 321 321 321 320 320 320 319 317 315 313 311 306 305 305 299 297 296 296 295 294 292 289 288 287 287 286 286 286 286 286 285 285 286 286 286 286 285 285 285
322 322 322 322 322 322 321 321 320 317 313 310 308 306 304 301 297 297 294 292 288 287 289 289 287 286 285 283 282 283 284 284 285 285 285 284 285 285 284 284 286 286 286
322 320 319 318 318 317 316 314 313 311 305 301 298 296 297 296 293 295 295 292 286 284 283 282 281 280 280 280 278 280 282 282 283 284 285 284 284 283 285 284 285 284 286

GFSMA_925_thetae_063.txt.gz
Theta_e
326 327 327 326 323 324 322 321 323 321 319 319 320 322 321 322 321 320 320 318 318 318 317 317 316 315 313 312 311 310 310 310 309 308 306 305 304 304 303 302 302 302 302
326 326 326 326 324 324 323 322 323 321 319 319 320 321 321 322 321 321 320 319 318 319 318 318 317 316 315 314 312 312 311 309 310 308 306 304 303 303 302 301 301 301 301
324 326 326 326 325 324 323 322 322 321 319 319 319 320 320 321 321 321 320 319 319 319 319 319 318 317 317 315 314 312 311 310 309 309 307 305 303 302 301 300 298 299 300
322 323 323 323 323 324 323 321 320 320 319 318 319 319 319 320 320 321 321 320 319 319 319 320 319 318 318 317 315 313 311 310 309 309 308 306 304 302 300 297 296 295 295
321 322 321 321 321 321 321 320 319 319 319 318 318 318 318 318 319 319 319 320 320 319 319 319 319 319 318 317 317 315 313 311 310 309 309 308 305 303 301 299 297 297 296
320 320 320 320 319 318 318 319 319 318 317 317 316 316 317 316 317 316 317 317 318 318 318 319 317 319 318 318 317 316 315 313 312 310 309 309 307 305 304 302 299 298 297
318 317 319 320 320 319 318 318 318 317 316 315 314 315 315 315 315 315 314 314 314 315 316 317 318 317 317 313 316 317 316 316 315 313 311 310 309 308 306 305 303 301 299
320 316 320 320 321 321 320 320 320 320 318 315 314 314 317 316 315 315 314 313 313 314 314 314 314 316 317 318 316 315 316 316 315 316 315 312 310 309 308 306 305 304 303
320 321 322 322 321 323 323 322 322 322 320 318 317 320 321 321 320 316 314 314 314 314 314 314 314 314 313 315 318 317 314 312 314 315 314 313 312 312 310 309 308 306 305
321 321 319 321 322 322 323 323 324 323 322 322 320 319 321 322 324 323 318 316 315 313 313 313 313 314 313 313 314 315 316 314 312 310 312 311 309 309 310 311 310 309 308
320 321 321 320 322 323 323 324 324 324 324 322 323 322 321 321 322 322 324 318 316 314 312 313 310 312 312 312 313 314 313 312 312 309 306 306 308 308 308 307 307 307 308
320 320 321 320 318 322 323 323 322 324 324 323 322 323 322 322 321 321 321 322 320 317 314 317 318 314 313 314 313 313 313 311 310 309 306 305 305 304 306 306 306 306 307
321 322 322 322 320 318 320 319 322 322 323 324 324 323 322 323 322 321 321 320 321 319 318 315 314 313 313 315 314 312 311 311 309 307 305 304 303 301 301 301 300 302 303
320 322 323 323 322 319 318 320 319 318 318 318 322 323 322 321 322 322 321 320 323 319 318 317 315 316 316 314 312 312 310 309 306 304 303 302 301 301 301 299 298 298 297
321 321 321 322 322 321 321 320 319 317 318 319 319 321 322 322 321 322 322 321 322 323 321 317 316 316 313 313 312 310 307 306 305 304 302 302 301 302 301 299 298 298 297
322 322 322 321 320 321 321 321 320 318 319 320 321 321 322 322 322 322 322 321 320 320 320 317 317 316 313 310 309 308 306 306 304 302 302 302 302 300 299 298 298 297 297
321 321 320 320 320 319 319 319 320 321 320 321 322 322 322 322 323 323 323 322 320 317 317 317 317 316 310 308 307 306 304 304 304 303 303 302 301 299 297 297 296 295 293
322 322 322 320 319 320 320 320 320 321 321 321 322 322 322 322 322 323 323 321 319 317 316 315 313 313 309 307 305 303 303 303 304 304 302 301 299 297 296 293 291 288 286
324 323 323 323 322 321 322 321 321 321 322 322 322 322 322 322 323 322 320 319 317 315 314 313 312 308 304 303 303 302 302 301 301 301 300 297 296 293 289 287 286 286 286
324 324 323 323 323 323 323 323 323 323 322 322 322 322 322 323 322 321 319 316 315 314 312 310 310 303 302 300 299 299 299 300 300 300 297 293 290 289 288 287 288 287 287
324 324 324 324 324 324 324 323 323 323 323 323 322 322 322 322 321 320 318 316 315 312 311 308 307 301 299 298 298 298 299 299 298 297 294 292 291 291 291 290 289 289 289
324 324 323 323 323 323 322 322 322 323 322 322 322 322 321 320 319 319 318 317 316 312 308 305 303 301 299 297 296 297 296 294 293 293 291 291 291 290 289 289 289 289 288
324 324 323 323 323 323 322 321 321 320 321 323 323 322 320 319 318 317 316 316 314 309 306 303 301 298 294 296 296 293 291 291 291 290 290 290 290 289 289 289 289 287 287
324 324 323 322 322 323 322 321 321 320 320 321 321 321 321 319 317 314 311 305 302 300 300 298 296 294 294 292 291 290 289 289 289 289 288 288 288 288 288 288 288 287 286
324 324 324 323 323 323 322 322 322 322 320 319 318 318 317 314 308 306 303 295 292 290 291 292 292 292 291 290 288 286 286 287 287 287 287 287 287 286 288 286 285 286 286
325 324 323 316 318 319 320 321 320 319 313 305 302 300 300 301 295 293 296 292 288 286 287 287 287 285 283 283 283 282 285 285 285 286 286 286 286 286 286 286 285 285 284

GFSMA_925_thetae_066.txt.gz
Theta_e
329 328 323 319 320 320 318 312 319 319 317 318 322 321 322 321 320 318 318 318 317 318 317 316 316 314 313 312 311 311 311 310 309 307 306 305 305 305 304 302 302 303 303
328 327 324 320 322 321 320 320 322 319 319 320 322 322 322 321 320 319 318 317 317 317 317 317 316 315 315 313 312 311 311 311 309 308 306 304 303 302 300 300 299 301 301
327 327 326 323 324 322 323 321 323 321 320 320 321 321 322 322 321 320 317 317 317 317 317 318 317 317 316 315 313 312 311 311 311 309 307 304 304 302 300 299 297 297 297
326 326 325 324 325 323 324 322 322 321 320 320 320 321 321 321 322 320 319 318 318 319 318 318 317 317 317 317 315 314 313 311 311 311 308 306 304 302 299 298 297 297 296
325 325 325 324 325 324 324 324 321 321 320 320 320 320 320 321 321 321 321 320 318 319 319 319 319 318 317 317 317 315 314 312 312 311 310 308 306 304 301 299 298 298 297
323 323 323 324 324 324 323 322 320 321 320 319 319 319 319 319 320 320 320 321 319 319 319 318 318 319 318 317 318 318 316 314 312 312 311 311 309 306 304 301 300 299 298
321 322 321 321 321 321 320 320 320 319 320 318 318 318 318 318 318 318 318 318 319 319 319 320 318 317 317 318 317 318 318 317 315 313 312 311 311 309 307 306 305 303 302
321 320 321 320 319 319 318 319 318 317 317 316 316 316 315 315 315 315 315 315 316 316 316 317 319 319 317 316 315 316 318 317 318 317 315 313 312 311 310 309 307 307 305
320 319 319 317 319 319 318 318 318 318 318 316 315 316 317 317 316 316 315 315 314 314 314 314 315 315 316 317 317 316 314 314 315 316 316 316 313 312 312 311 310 308 307
319 319 318 319 317 321 320 320 319 320 320 318 315 316 318 322 321 319 316 315 314 314 314 314 314 314 314 314 314 318 318 317 313 312 314 316 315 314 313 312 311 311 310
320 319 320 320 322 317 322 322 322 321 323 321 318 318 318 320 321 321 319 317 315 316 314 314 314 314 314 314 313 312 313 317 316 315 312 311 313 313 312 311 311 311 311
319 320 321 321 322 320 321 322 321 321 323 322 322 323 323 321 321 322 319 320 317 316 316 314 313 314 314 313 313 312 312 315 314 314 314 313 310 310 310 309 310 309 309
318 318 320 322 321 319 321 321 320 319 321 322 321 321 320 322 321 322 322 321 320 320 318 316 315 313 317 317 314 314 314 314 314 314 312 311 311 309 308 307 306 306 306
318 317 319 320 321 321 318 320 321 320 319 318 320 320 319 320 321 321 321 321 318 320 320 319 318 318 318 317 316 315 316 314 313 313 312 311 309 308 305 304 302 300 301
319 319 320 320 319 320 320 319 319 318 316 318 320 319 319 319 320 319 320 321 320 319 319 319 318 318 317 316 315 316 316 314 313 312 311 310 307 305 303 302 301 301 300
319 319 321 322 320 321 322 321 320 319 317 319 320 319 320 320 321 320 320 321 321 321 321 320 320 318 318 317 316 316 315 314 312 311 311 307 304 303 302 301 301 300 299
320 320 320 321 322 323 323 321 320 319 319 320 319 320 321 321 321 321 322 321 321 321 321 320 319 319 318 317 316 314 314 312 311 310 307 304 302 301 302 301 300 299 298
320 320 321 322 322 322 322 322 322 321 321 320 320 320 320 321 321 321 322 322 322 322 321 320 319 317 317 316 317 314 311 308 307 307 304 303 302 302 301 300 298 297 296
323 321 321 322 322 323 322 321 321 320 320 320 320 321 321 321 322 322 322 322 322 322 320 319 318 316 314 315 314 310 309 306 305 305 304 304 302 301 299 297 295 293 290
324 323 322 322 322 321 321 321 321 320 320 320 320 320 321 321 321 322 322 322 323 321 319 317 316 314 311 310 309 305 303 304 304 303 303 302 300 298 293 290 289 288 287
326 325 324 323 323 323 323 322 321 321 321 321 321 321 321 322 322 322 322 322 322 319 318 315 314 312 305 302 303 303 303 301 300 301 301 298 293 292 291 291 291 290 289
326 326 325 325 324 323 324 324 323 323 323 323 323 323 323 323 322 322 322 323 321 319 317 316 315 312 306 304 302 301 299 298 295 297 297 295 292 292 291 290 290 289 289
326 326 325 325 325 325 324 324 324 323 323 324 324 323 323 323 322 322 322 321 321 319 317 315 314 310 304 300 299 296 296 294 292 292 291 291 291 291 290 289 289 289 288
326 326 325 325 325 325 324 324 324 323 322 321 321 321 322 322 322 321 320 315 307 303 302 303 305 298 299 297 297 296 295 292 291 290 288 288 289 289 288 288 288 287 288
325 325 325 325 325 324 324 323 323 323 322 320 319 319 318 318 318 317 313 299 294 291 292 295 294 294 294 293 292 292 289 289 288 288 288 287 287 287 287 286 287 287 287
325 326 321 316 315 314 312 317 320 318 316 312 306 303 301 304 301 301 301 295 288 286 287 288 287 288 287 286 286 285 286 286 286 286 285 286 286 286 285 286 286 285 285

GFSMA_925_thetae_072.txt.gz
Theta_e
330 329 327 326 322 319 318 318 321 320 319 320 321 320 319 318 317 318 318 318 318 319 318 317 317 316 315 314 313 312 312 311 310 310 310 309 308 307 306 306 306 307 306
328 327 326 324 320 318 316 320 321 319 320 320 322 320 319 318 317 318 317 317 318 318 318 317 317 316 315 314 313 312 311 311 310 309 308 308 307 303 299 299 301 303 300
328 326 325 322 319 315 315 318 318 319 321 318 322 320 320 318 317 317 317 317 317 317 317 317 317 316 315 315 314 312 312 311 309 309 307 303 301 299 299 299 298 300 299
326 324 321 318 317 312 314 313 317 319 320 319 322 320 319 318 317 317 317 317 316 317 316 317 317 317 316 315 314 314 313 312 311 309 305 301 302 301 300 299 299 299 299
325 320 316 316 313 311 312 314 317 316 318 321 321 320 319 319 317 317 316 316 316 316 316 316 315 316 315 316 316 315 314 314 313 312 310 308 303 301 301 300 299 299 299
325 317 316 314 312 310 316 318 317 318 319 320 321 321 320 319 318 317 317 316 315 316 316 316 316 316 316 316 317 317 317 316 314 314 313 311 309 304 303 302 301 300 300
324 320 317 317 314 312 318 320 322 321 319 320 320 319 321 320 319 319 318 316 316 316 316 317 317 317 317 317 317 318 319 318 317 316 314 314 313 311 307 306 304 303 302
326 322 317 321 320 316 316 319 321 319 319 320 319 318 315 317 319 319 319 318 318 317 317 317 317 317 317 317 317 317 318 320 320 319 316 315 313 312 312 311 309 308 307
326 324 320 323 324 321 320 323 322 319 319 319 319 318 314 316 315 318 319 319 319 319 319 318 318 318 318 318 317 317 317 317 318 320 319 317 315 314 313 313 312 311 310
324 324 324 321 324 324 322 323 322 320 319 318 317 318 318 317 315 314 316 317 319 320 319 319 319 319 319 319 318 318 318 317 316 316 318 319 318 316 315 314 313 313 312
323 322 323 324 323 323 323 322 319 318 319 318 317 316 317 317 316 314 313 313 314 316 317 318 317 318 318 317 317 317 317 317 316 317 317 316 316 318 318 316 316 314 314
322 322 321 322 320 321 322 322 318 320 318 317 316 317 316 317 318 318 314 313 314 315 315 315 315 316 315 314 313 314 314 314 314 314 315 315 316 316 316 317 317 317 315
320 320 320 321 321 321 319 319 319 319 317 316 316 315 315 315 316 317 318 317 315 317 316 315 315 314 314 313 313 314 314 314 314 314 314 314 314 315 316 316 316 316 316
320 320 319 319 319 318 318 319 319 319 318 317 316 316 318 318 318 320 320 318 316 317 317 317 318 317 316 315 315 315 314 314 314 314 313 313 313 313 313 312 316 316 315
319 319 320 320 319 319 318 318 319 321 318 318 319 320 320 319 318 320 320 320 319 319 316 319 319 320 320 319 318 317 318 318 318 318 317 317 316 316 315 313 313 316 316
319 319 319 320 319 319 319 320 319 319 320 321 321 320 319 318 317 317 318 319 318 319 319 317 317 317 318 319 318 318 319 319 317 318 318 317 316 316 316 314 314 314 314
319 319 319 319 319 320 320 320 320 320 320 320 321 320 319 318 317 317 317 318 318 318 318 318 318 317 317 317 318 317 318 318 318 319 319 318 317 317 316 314 315 313 314
317 318 319 318 318 318 320 320 320 320 320 319 319 319 319 318 318 317 317 317 318 318 318 318 317 317 317 317 317 317 318 318 318 319 319 319 318 317 316 315 314 312 312
318 317 318 318 318 318 318 319 319 319 320 319 319 319 318 318 318 318 318 317 318 318 318 317 317 317 318 317 317 318 318 317 318 318 318 318 318 317 315 313 311 308 305
320 320 319 318 318 318 318 319 319 319 319 318 319 319 318 317 317 317 317 317 317 317 318 318 318 318 318 318 319 318 317 316 317 317 316 317 315 313 310 306 304 303 300
320 320 320 320 319 319 318 318 318 319 319 319 318 318 318 318 318 317 317 317 317 317 317 318 318 318 319 317 316 318 315 317 316 313 311 310 309 306 303 302 300 298 297
321 321 320 320 319 319 319 319 318 318 319 320 319 319 319 319 319 319 319 318 318 318 318 318 319 319 319 319 319 316 317 310 304 304 305 301 300 300 298 298 297 294 294
321 321 321 321 321 320 319 319 319 319 319 320 320 320 320 319 319 319 319 319 318 318 319 319 319 319 319 319 319 314 312 308 304 301 300 294 295 294 293 293 292 292 292
321 321 322 322 322 322 322 321 321 320 319 320 321 320 319 319 319 318 317 316 316 315 314 313 312 311 311 310 311 310 305 297 294 293 294 290 291 291 291 291 291 291 289
321 322 322 323 322 322 322 323 323 321 318 319 319 320 320 319 319 319 318 316 308 298 293 293 292 292 295 297 298 299 295 293 289 288 289 289 289 289 289 289 289 288 288
309 317 305 301 299 303 303 311 317 316 317 317 313 307 307 308 311 314 315 307 290 286 286 288 289 291 290 290 292 292 291 289 287 285 284 286 285 286 286 285 287 287 286

GFSMA_925_thetae_075.txt.gz
Theta_e
324 329 329 330 327 327 325 322 320 321 321 320 320 319 317 317 318 318 319 319 319 319 319 318 317 317 316 315 315 314 313 313 312 312 311 311 311 309 309 309 309 308 307
327 330 328 328 327 326 325 322 320 320 320 320 320 319 318 317 318 318 318 318 318 319 319 318 317 316 315 315 314 313 313 312 312 311 310 309 309 307 306 306 306 305 304
330 329 327 326 325 325 324 321 319 319 320 320 320 319 319 318 318 318 318 317 318 318 318 318 318 317 316 315 314 313 312 311 310 310 309 307 306 303 299 299 300 300 299
327 328 326 326 324 322 320 319 319 318 319 320 319 319 318 317 317 317 317 317 317 317 317 317 317 317 316 316 315 313 313 311 310 310 308 302 304 301 300 300 300 300 299
327 326 324 325 322 319 319 319 318 318 318 320 319 319 318 317 317 317 317 316 317 317 317 317 316 316 316 316 316 315 314 313 312 311 309 303 302 301 301 300 300 300 300
326 324 323 323 319 318 317 319 318 318 318 321 320 319 319 318 317 317 317 317 316 316 316 316 316 316 315 316 316 316 316 316 315 314 312 310 308 303 302 301 301 301 300
325 323 322 320 318 316 316 316 317 317 317 321 320 318 317 317 317 317 316 316 316 316 316 315 315 315 315 315 315 318 318 318 317 316 315 315 313 310 307 305 303 302 302
323 323 319 317 316 313 314 315 317 317 317 320 319 318 315 317 317 317 317 317 316 315 316 316 316 316 316 316 316 316 318 320 320 320 318 316 315 314 312 311 309 306 307
324 322 318 316 315 313 314 316 318 318 318 319 319 319 315 318 317 318 317 317 317 316 316 316 316 316 317 317 317 317 317 317 318 319 320 319 317 316 315 314 313 311 310
325 323 318 318 315 314 316 318 320 321 318 318 318 319 319 317 317 314 316 318 319 319 319 318 317 317 317 317 317 318 318 317 317 317 317 318 320 318 317 316 315 314 313
326 323 319 320 321 316 317 319 320 320 320 318 318 318 317 315 317 314 314 314 317 318 319 319 319 319 318 318 318 318 318 318 318 318 317 317 316 317 319 318 317 316 315
323 324 324 321 321 321 322 318 321 321 318 318 318 318 317 317 317 317 313 312 314 315 317 318 319 319 319 318 317 317 316 315 314 315 316 316 316 316 317 317 317 318 317
323 322 322 323 321 318 322 322 320 320 318 318 316 317 318 317 317 316 317 316 315 316 315 315 315 316 316 316 315 315 315 314 313 313 314 314 314 314 314 315 315 316 318
322 322 322 323 323 322 320 322 322 321 321 320 319 317 316 317 318 316 318 317 314 314 317 317 318 317 315 315 315 315 315 315 314 315 316 315 314 314 314 314 314 314 314
321 321 321 320 321 321 320 320 320 319 319 319 319 318 317 316 316 316 316 317 318 317 317 318 318 318 318 318 318 317 317 317 317 317 316 315 314 315 315 315 315 314 313
318 320 319 319 319 320 320 321 319 319 319 319 319 318 318 317 317 318 319 319 320 319 319 318 317 317 317 318 317 318 318 317 317 317 317 318 318 318 318 318 317 316 316
319 319 319 320 319 319 319 319 318 319 319 319 319 319 318 318 319 319 320 319 317 317 318 317 317 317 317 317 317 317 317 317 317 317 317 317 317 318 317 318 318 318 317
319 319 319 319 319 319 319 319 319 319 319 319 319 319 319 319 320 320 318 318 317 317 317 317 317 317 317 317 318 318 317 317 317 317 317 317 317 317 318 318 318 318 317
318 318 318 318 318 318 319 319 320 319 319 319 319 319 319 319 319 318 317 317 317 317 317 317 317 317 317 317 316 316 316 316 316 317 317 318 318 318 319 318 318 317 317
320 319 318 318 318 318 318 318 318 319 320 320 319 319 319 319 318 318 318 317 317 317 316 316 317 317 317 317 317 316 316 316 316 316 317 317 317 317 316 316 315 314 312
320 320 320 319 318 318 317 317 317 317 318 318 318 318 319 319 319 318 317 317 317 316 316 316 316 317 317 317 316 316 317 316 316 316 315 314 315 314 314 313 311 308 306
320 320 320 320 320 319 318 318 318 317 317 318 318 317 317 317 317 318 318 318 317 316 315 316 316 316 316 317 317 317 316 316 316 316 315 312 309 308 307 306 305 302 300
320 320 320 320 319 319 319 319 319 318 317 318 318 318 318 318 318 317 317 318 318 317 317 317 317 317 317 318 318 318 317 316 316 312 308 299 297 298 298 297 297 296 295
311 317 320 320 320 320 318 320 319 319 318 318 318 318 319 319 319 319 318 318 317 317 315 316 311 311 311 309 310 311 312 310 300 296 295 292 291 291 292 292 292 291 291
300 302 305 305 307 307 301 311 316 317 316 317 318 318 315 316 318 319 319 317 316 307 295 298 298 293 290 291 295 297 298 296 291 287 290 290 289 289 289 289 289 289 289
289 291 291 290 290 290 293 298 302 307 306 311 305 299 295 295 302 307 310 310 296 287 287 287 289 290 289 289 290 291 291 288 287 286 284 286 285 286 286 285 286 287 286

GFSMA_925_thetae_078.txt.gz
Theta_e
329 327 325 329 328 329 327 321 322 323 324 323 321 320 319 318 318 319 319 319 319 319 320 320 319 317 316 316 316 315 315 314 314 314 313 313 312 312 312 311 310 310 309
328 328 328 328 328 328 325 321 321 322 322 321 320 319 318 317 318 319 319 319 319 319 319 319 318 317 317 316 315 315 314 314 314 313 313 312 311 310 310 309 309 307 308
326 327 327 328 328 327 324 321 321 322 321 320 319 318 317 317 318 318 318 318 318 318 318 318 318 317 316 316 315 314 314 313 313 312 311 310 309 307 305 307 306 305 305
326 326 328 327 327 327 324 321 320 321 320 320 319 318 317 317 318 318 318 318 318 318 318 318 317 317 316 316 315 314 314 313 312 312 311 310 309 306 303 301 301 303 300
325 327 327 326 326 326 324 320 319 320 319 318 319 318 318 318 318 318 318 317 317 317 317 317 317 316 316 317 316 315 314 313 312 312 311 310 309 308 304 301 300 301 300
326 327 326 325 325 324 323 320 319 319 320 319 318 318 318 318 318 318 318 317 317 317 317 317 316 316 316 316 317 316 316 315 314 313 312 311 310 309 306 302 301 301 301
326 327 327 325 323 323 323 320 318 318 319 318 317 316 316 317 317 318 317 317 317 316 316 316 316 316 316 316 315 317 317 318 317 315 314 314 312 311 309 303 303 302 302
323 324 323 323 322 319 319 318 317 316 318 319 318 317 316 316 316 317 317 317 317 316 316 315 315 315 315 315 315 315 318 319 319 319 317 316 315 314 313 308 307 305 304
325 324 324 322 320 318 317 318 317 316 318 319 319 318 315 318 316 317 316 316 316 316 316 316 316 315 316 316 316 316 316 316 318 319 320 319 318 317 316 316 314 311 309
324 322 321 322 318 317 316 317 317 316 318 318 318 318 320 318 318 314 316 317 316 316 316 316 317 317 317 316 316 316 316 317 317 317 317 319 320 320 319 318 317 317 316
324 322 320 321 317 315 314 315 316 317 317 318 318 318 317 316 318 314 314 315 317 317 318 317 318 318 318 318 317 317 317 317 317 317 317 317 317 317 318 319 319 318 317
323 323 321 319 316 314 313 314 315 318 318 318 319 319 318 316 316 315 312 313 316 318 319 318 318 318 317 319 319 319 318 318 317 318 318 317 317 317 317 317 318 318 318
323 321 323 320 316 314 313 313 317 318 320 320 318 318 317 318 318 318 315 314 313 314 314 314 314 315 316 317 318 318 318 317 316 316 316 316 314 314 314 315 316 317 318
322 321 321 321 319 318 314 317 317 319 320 318 318 318 317 316 316 317 317 315 314 314 316 316 315 318 318 318 318 317 316 315 315 315 315 315 314 314 313 313 314 314 315
322 322 322 322 320 317 319 319 319 320 320 320 319 319 319 319 318 317 316 317 316 316 315 317 317 317 318 318 318 318 318 318 318 317 316 316 316 316 316 316 315 314 314
321 321 321 321 322 322 321 319 318 320 321 321 321 321 320 320 319 318 317 316 317 316 316 315 317 318 318 317 317 317 317 317 317 317 317 318 317 317 317 316 317 316 315
319 319 320 321 321 321 321 321 320 320 321 321 320 319 319 319 318 318 316 316 317 317 317 318 318 317 317 317 317 317 317 317 317 317 317 317 317 317 316 316 317 317 317
319 318 318 319 319 319 319 320 320 320 320 319 318 318 318 318 318 317 317 317 317 318 318 317 317 317 317 317 316 317 317 317 317 316 316 317 317 317 317 316 317 317 317
318 318 318 319 319 319 319 319 319 319 318 318 318 318 318 318 318 318 318 318 318 318 317 316 316 317 317 317 316 317 317 316 316 316 317 317 317 316 317 317 317 317 317
319 318 318 318 318 318 318 319 319 319 319 319 319 319 318 318 318 318 318 318 317 317 317 316 316 316 316 317 316 316 315 315 315 315 316 316 316 316 317 317 317 317 317
319 319 319 319 318 318 318 318 317 318 318 318 319 319 319 319 319 318 318 318 318 317 317 317 317 317 316 316 316 316 316 316 316 315 315 314 316 316 316 317 317 317 317
320 319 319 320 319 319 318 318 318 317 317 317 317 317 318 318 318 318 318 319 318 318 317 316 316 317 316 316 316 316 316 316 316 316 316 316 315 314 312 312 313 313 313
313 316 318 319 320 319 318 318 318 318 317 317 317 317 317 317 317 317 317 317 317 318 318 317 317 316 316 316 316 316 316 316 316 314 311 309 305 302 300 301 300 300 300
302 303 304 307 310 301 300 304 311 316 316 317 317 317 315 315 315 314 315 316 316 315 308 310 309 308 302 303 306 307 309 307 302 298 297 294 292 290 292 292 291 291 291
292 291 291 293 294 294 298 301 305 309 309 307 303 297 297 299 300 304 303 303 300 291 287 292 294 289 288 291 294 295 297 298 298 288 288 289 288 287 287 287 288 288 288
287 287 287 287 287 288 291 296 301 301 300 294 291 290 288 288 292 297 302 302 290 287 289 288 287 287 288 287 288 287 288 288 288 285 283 285 285 287 285 283 284 285 285

GFSMA_925_thetae_081.txt.gz
Theta_e
327 328 328 329 329 329 329 330 328 326 325 324 324 323 322 321 320 320 319 319 319 320 322 321 321 319 318 317 317 316 316 315 315 315 315 315 314 314 313 313 312 312 311
327 328 328 327 328 328 327 328 326 325 325 324 323 322 321 320 320 320 320 320 319 319 320 321 321 319 317 317 317 316 316 316 315 315 315 314 313 313 313 312 311 310 310
327 328 328 328 328 327 327 325 325 324 323 323 322 321 320 319 319 319 320 320 319 318 319 318 319 318 317 317 316 316 315 315 315 314 314 313 312 312 311 310 309 309 308
328 328 328 327 327 327 326 322 323 322 322 322 321 320 319 319 319 320 319 319 319 318 318 318 317 317 317 317 316 316 315 315 314 314 313 312 310 309 309 309 307 307 306
326 328 328 326 327 326 325 321 321 321 321 321 320 320 319 319 319 319 319 320 320 319 319 318 317 316 316 317 316 316 315 314 314 314 313 311 311 309 308 307 302 304 302
325 327 327 326 326 326 321 319 320 321 321 321 319 319 319 319 319 319 320 319 319 319 319 319 318 317 316 316 316 316 316 315 314 313 313 312 312 310 308 305 305 302 301
325 326 327 326 326 325 320 319 319 320 320 320 319 318 318 318 319 319 319 319 319 319 318 318 318 317 317 316 316 317 317 317 316 315 314 313 312 312 310 306 305 303 302
325 325 325 324 324 322 320 318 318 320 320 319 320 320 320 319 318 318 318 319 319 318 318 318 318 317 317 317 317 315 317 319 319 319 317 315 314 313 312 309 306 304 304
324 324 324 322 322 321 320 318 318 320 320 319 320 321 321 323 320 318 318 318 318 318 317 317 317 316 314 316 316 315 314 315 317 319 319 318 317 316 316 316 315 313 310
324 323 323 324 324 321 319 319 318 319 319 320 320 319 321 321 323 322 318 318 318 318 318 317 317 317 317 316 316 316 316 316 316 316 317 319 320 320 319 319 318 318 317
321 321 321 324 321 320 319 319 317 317 319 320 320 319 318 319 321 322 323 319 318 318 318 318 318 318 317 317 317 317 317 317 317 316 316 317 317 317 319 320 319 319 318
323 322 322 322 321 320 318 318 318 317 318 319 319 319 318 319 319 319 320 320 320 319 318 318 318 318 317 317 317 317 318 318 318 318 317 317 317 317 317 317 318 319 319
322 321 320 319 319 319 317 316 317 317 317 318 319 319 319 320 319 318 318 318 320 319 318 319 318 319 317 316 315 316 317 317 317 318 318 318 318 317 317 318 317 317 319
323 323 322 320 320 319 315 314 314 317 317 317 317 319 318 319 318 318 318 318 320 319 317 318 317 316 314 314 315 316 317 316 316 318 316 316 315 315 315 316 316 315 314
321 323 322 321 319 318 314 313 312 314 316 318 318 318 317 318 318 318 318 317 317 320 319 317 317 314 315 314 313 315 317 317 317 317 317 317 317 317 317 316 315 315 314
321 321 321 320 320 317 315 313 312 313 315 317 318 319 319 318 317 317 317 317 318 317 319 318 317 316 316 315 315 315 315 317 317 316 317 317 317 317 316 317 317 317 317
320 321 321 321 320 319 316 317 316 317 317 317 319 319 320 320 320 319 319 318 318 317 317 317 317 316 316 316 316 317 317 317 317 316 316 317 317 317 317 317 317 317 317
319 319 319 320 321 320 319 318 317 318 319 318 318 319 319 319 319 320 318 318 318 317 318 318 317 317 317 317 317 317 317 316 316 316 316 316 317 317 317 317 316 317 317
319 319 319 318 319 319 320 320 320 320 320 319 319 319 319 319 319 318 318 318 317 317 317 317 317 317 317 317 316 317 317 317 317 316 316 317 317 317 317 317 317 317 316
318 318 319 319 319 319 320 319 319 319 320 320 320 319 319 319 319 318 318 318 318 319 318 318 318 317 317 317 317 317 318 318 316 316 316 316 316 316 316 316 316 316 316
319 318 318 318 319 318 318 318 319 319 319 319 319 319 319 319 319 319 319 319 319 318 318 318 317 317 318 318 318 317 317 317 317 317 318 317 316 316 315 315 316 316 316
316 318 318 318 319 317 317 317 317 318 318 319 319 319 318 318 318 318 318 318 318 319 318 318 318 318 317 317 317 317 317 317 317 317 317 317 317 317 314 313 313 313 310
308 309 308 310 309 305 304 310 315 316 316 317 317 317 317 317 317 317 317 318 318 318 316 313 314 316 315 313 311 313 316 316 316 313 309 308 302 300 295 294 294 297 298
296 296 295 294 296 296 301 304 308 313 311 307 305 304 304 305 305 306 308 308 308 305 303 303 300 294 291 293 295 297 299 297 297 294 295 293 291 288 289 289 290 290 290
289 288 288 288 288 290 295 301 304 304 299 293 291 291 292 294 297 301 302 301 295 289 286 288 288 288 287 290 294 295 293 294 296 290 288 290 287 286 285 284 284 285 286
286 286 286 285 285 286 289 293 295 292 288 286 286 285 285 286 290 294 294 290 286 284 284 284 285 285 285 285 285 286 285 284 285 284 282 284 285 286 286 282 282 283 283

GFSMA_925_thetae_084.txt.gz
Theta_e
331 329 329 330 330 330 330 329 331 330 330 329 328 327 326 325 323 322 322 321 322 322 320 319 321 321 319 318 318 318 317 317 316 316 316 316 315 315 315 314 314 314 313
330 330 330 330 329 329 330 329 330 329 329 328 327 326 325 323 322 321 320 321 320 319 322 322 322 321 319 318 317 317 317 317 317 316 316 315 315 314 314 313 312 312 312
329 330 331 331 329 328 328 329 329 328 328 327 327 325 324 322 320 320 320 320 320 319 321 320 321 320 318 318 317 317 317 317 317 316 316 315 314 314 313 312 312 311 311
328 328 329 329 328 328 328 327 328 327 326 326 326 325 322 320 320 320 320 321 321 321 320 319 319 318 318 318 317 316 316 316 316 316 315 315 314 313 313 312 310 310 310
327 326 328 330 328 326 327 327 327 327 326 325 325 324 322 321 321 320 320 320 320 319 320 319 318 317 317 317 317 317 316 316 315 315 315 314 313 311 311 309 308 309 309
328 328 329 329 328 325 325 326 326 325 326 325 323 323 323 322 322 321 320 320 320 319 320 320 318 317 316 316 317 317 317 316 315 315 315 314 313 312 311 308 304 304 309
327 327 328 328 327 324 324 325 326 325 325 324 323 322 322 322 322 321 321 321 320 319 319 319 318 318 317 316 315 317 317 318 317 316 315 314 314 313 312 311 308 304 304
326 326 327 327 326 324 323 324 325 325 325 324 323 322 323 322 322 322 322 321 320 319 319 319 318 318 318 317 317 316 318 318 319 318 317 315 314 313 311 309 307 305 304
325 325 325 325 325 324 322 322 324 324 325 324 323 323 323 325 322 322 321 321 320 320 318 318 319 318 318 318 317 316 314 316 319 320 319 318 318 317 317 316 316 315 312
324 325 325 325 324 324 322 321 323 324 324 324 324 323 321 320 324 325 322 322 321 321 320 318 318 318 318 318 318 319 317 313 314 316 319 320 320 319 319 319 319 318 318
323 324 324 323 323 323 322 322 322 324 324 324 323 323 323 324 322 322 324 323 322 322 321 320 320 319 319 319 319 320 318 317 316 315 315 316 317 319 320 320 320 320 319
321 321 321 321 321 321 321 322 322 323 323 323 323 323 323 324 323 323 323 322 322 322 322 321 321 321 321 321 321 320 320 318 317 317 317 317 316 316 316 317 317 317 318
321 319 319 319 320 321 321 319 320 321 321 322 322 323 322 322 322 322 321 319 320 321 321 322 321 321 321 321 320 319 317 316 316 317 317 317 318 318 318 318 317 317 317
322 321 321 320 318 320 319 319 319 319 319 321 322 322 322 322 321 321 319 318 320 320 319 321 322 322 321 321 321 316 317 315 316 316 316 317 317 317 316 316 316 317 317
324 322 321 319 318 317 317 316 314 318 318 319 321 321 321 321 321 320 319 316 317 321 321 319 319 319 321 321 320 317 316 315 314 315 315 317 316 316 316 317 317 316 316
322 321 322 321 319 318 317 315 316 317 318 318 319 319 320 320 321 320 320 318 318 318 319 318 319 319 318 317 316 315 315 315 314 315 315 316 316 316 316 316 317 317 317
322 322 321 321 320 318 318 314 314 314 316 318 317 317 318 318 319 319 318 317 317 317 317 317 318 318 318 319 318 316 316 315 315 315 316 316 316 316 316 316 316 317 316
322 322 321 320 320 319 318 316 314 313 314 315 316 316 317 318 318 319 319 319 318 318 318 318 318 318 317 317 317 317 316 316 316 317 317 316 316 316 315 316 316 316 316
321 321 321 322 321 320 319 318 316 315 315 316 315 315 315 317 317 318 318 318 319 319 318 318 318 318 318 318 318 318 318 318 319 318 318 317 317 317 317 317 317 317 317
320 321 321 320 319 320 320 319 318 317 317 317 318 318 317 317 318 318 318 319 319 320 319 319 319 319 319 318 318 319 319 319 320 320 319 319 319 318 318 317 317 316 316
321 321 321 320 320 320 317 319 321 320 321 320 320 321 321 321 321 321 320 320 320 320 319 320 320 320 321 321 321 320 320 320 320 319 319 319 319 319 316 314 314 314 314
317 317 317 318 315 312 315 318 319 320 321 320 320 320 320 320 320 320 319 319 319 319 320 320 319 319 319 318 318 318 318 318 317 317 312 315 309 308 300 299 295 298 302
302 302 302 303 302 302 305 310 314 315 313 312 312 313 313 312 313 314 314 315 315 312 309 308 308 305 300 301 299 300 301 301 301 302 300 300 299 298 293 293 292 292 294
291 291 292 292 294 295 301 305 306 304 302 298 298 298 298 300 302 304 303 302 299 297 295 295 293 289 290 291 294 296 297 295 295 294 293 296 292 287 287 286 286 287 288
288 287 287 288 288 290 295 297 299 294 291 288 289 289 291 293 296 301 298 293 288 285 285 286 287 287 288 290 291 292 290 291 293 286 286 287 286 285 285 284 284 284 285
287 286 285 286 286 286 288 291 292 289 286 285 284 284 284 285 290 292 291 288 285 284 285 285 286 285 284 284 285 285 286 288 288 289 283 286 288 287 289 285 284 284 284

GFSMA_925_thetae_087.txt.gz
Theta_e
335 334 332 331 331 330 328 326 326 329 332 331 331 330 328 327 325 326 325 323 323 324 324 322 321 320 320 319 319 318 318 318 318 318 318 317 317 316 316 316 316 315 315
334 334 333 331 330 332 328 325 327 330 331 331 330 329 326 325 324 323 324 323 322 322 321 321 322 322 321 319 318 318 317 318 317 317 317 317 316 316 315 315 314 314 314
334 332 331 331 332 331 329 327 326 329 330 329 328 327 325 324 323 322 323 323 322 320 319 321 322 322 320 319 318 318 317 317 317 317 316 315 315 315 314 313 312 312 313
332 332 332 332 331 330 329 328 327 327 328 329 327 325 324 323 322 321 321 321 321 320 321 322 321 319 318 319 318 318 318 318 317 317 316 315 314 314 314 312 311 311 311
332 332 332 331 330 329 328 328 329 326 327 327 326 325 323 321 321 320 321 321 321 321 322 320 319 318 318 318 318 318 318 318 317 317 316 315 314 314 313 312 311 309 308
330 329 329 328 329 328 329 328 326 325 326 326 325 323 322 322 321 320 320 321 321 321 321 322 320 318 317 317 317 318 318 317 317 316 316 316 315 314 312 311 308 309 308
329 328 328 327 328 328 328 328 327 325 326 325 325 323 323 322 323 322 321 320 321 320 321 322 320 318 318 317 316 317 318 318 317 317 317 316 315 313 312 310 307 306 306
328 328 328 329 328 327 327 327 326 325 324 325 324 323 324 322 323 322 322 321 321 320 320 321 321 319 319 318 317 316 318 318 319 318 317 316 315 314 312 310 306 306 306
329 327 327 327 327 327 326 326 326 325 325 324 324 324 324 324 323 323 323 322 322 321 320 320 319 320 319 319 318 317 316 317 318 319 318 317 316 316 315 315 314 313 312
329 328 327 327 326 325 325 325 325 325 324 325 324 323 321 321 325 326 323 323 322 321 320 320 319 319 319 319 319 319 318 316 317 318 319 319 319 319 318 318 318 317 317
325 325 325 326 325 325 325 325 324 325 324 325 324 324 323 322 323 324 325 324 323 322 322 321 320 319 319 319 319 318 318 318 318 313 317 319 319 320 320 320 320 320 319
323 322 323 325 325 324 323 324 323 321 324 324 324 324 324 324 324 323 325 324 324 322 322 322 321 320 320 320 319 320 320 320 319 318 315 315 316 316 317 317 318 319 319
322 321 322 323 323 323 322 323 323 323 324 324 324 324 324 324 323 323 323 323 323 322 322 323 323 323 322 322 322 321 320 320 321 320 318 317 317 317 317 317 317 317 317
321 321 320 320 321 322 322 322 323 324 324 324 324 324 324 323 323 323 323 321 322 320 320 322 322 322 323 323 322 322 322 321 319 317 316 315 317 317 317 316 317 317 317
323 322 320 319 320 320 321 321 322 322 322 323 323 322 322 323 323 322 321 321 320 322 321 319 319 321 322 322 323 322 322 321 320 317 316 315 316 317 316 317 316 316 316
324 323 321 320 319 319 320 320 320 320 320 321 321 322 322 322 321 321 322 322 321 319 320 317 318 319 320 319 321 321 322 322 320 317 315 315 315 315 314 315 316 316 316
325 325 322 320 319 319 319 318 317 316 315 315 316 319 320 319 321 321 321 322 322 321 321 319 317 316 316 317 318 319 318 318 317 316 316 316 315 315 315 315 316 316 316
323 322 324 321 320 319 317 316 316 315 315 316 317 318 319 319 319 319 320 320 319 319 318 318 317 317 317 317 317 317 318 318 318 317 317 317 316 316 316 316 316 316 316
323 324 323 321 320 319 318 317 316 316 315 315 316 317 318 318 318 318 318 318 318 318 318 318 317 318 319 319 318 318 318 318 318 318 317 317 317 317 317 317 317 317 317
322 321 322 322 321 320 319 318 317 315 314 313 313 314 316 315 316 316 317 317 317 317 317 318 318 318 319 320 320 320 321 320 320 320 321 320 320 319 314 317 316 315 316
320 321 321 320 320 319 318 318 318 317 317 317 317 317 317 317 316 317 317 317 318 319 318 319 320 320 320 320 320 321 321 321 321 318 317 316 317 315 311 306 305 302 304
314 314 314 312 308 308 311 317 319 318 319 318 318 317 316 314 316 319 319 318 316 314 316 315 317 319 316 303 306 305 303 304 308 310 305 304 305 303 299 296 294 294 293
305 303 300 300 300 302 305 309 315 313 311 310 309 309 309 309 308 307 305 306 303 300 300 303 299 292 293 293 294 297 297 297 299 296 296 298 296 295 292 290 289 290 291
294 294 293 294 295 295 299 303 306 305 301 297 297 297 298 300 302 301 300 297 294 293 293 293 291 287 287 290 291 292 292 292 292 291 291 292 289 288 287 287 287 288 288
288 288 289 289 289 290 291 294 297 294 291 288 288 289 291 293 296 297 296 292 288 287 287 286 286 286 286 287 289 289 289 291 291 287 285 286 287 287 286 286 285 285 285
287 287 286 286 286 287 288 289 290 289 286 285 284 284 284 286 288 289 289 287 284 284 285 285 285 284 284 283 283 283 285 288 289 290 283 284 287 288 290 287 286 285 285

GFSMA_925_thetae_090.txt.gz
Theta_e
336 335 336 334 332 331 329 327 327 326 326 331 331 329 330 330 329 328 326 325 325 325 324 323 323 322 321 319 319 319 318 318 318 318 318 316 316 316 316 315 315 315 315
336 335 335 334 332 331 329 327 327 326 326 329 330 329 330 328 328 326 324 324 324 323 323 323 322 321 320 320 319 318 318 317 318 317 316 315 315 315 314 315 315 314 314
335 334 333 332 332 331 329 327 328 327 325 328 329 329 328 327 326 325 323 323 323 323 322 321 320 321 321 320 319 318 318 317 317 317 316 315 314 314 313 313 312 312 312
334 333 333 332 332 330 330 328 325 325 328 329 329 328 327 325 323 323 323 322 322 321 319 319 321 320 320 319 318 318 317 317 317 317 316 315 314 313 313 311 310 311 311
334 332 332 331 331 330 330 328 326 326 326 328 327 327 325 324 322 322 323 322 321 321 320 321 321 320 318 318 318 318 318 318 318 318 316 316 313 312 312 310 309 308 308
333 332 331 331 330 330 329 329 327 326 326 327 327 324 323 322 321 321 322 322 321 321 321 320 321 319 318 317 318 318 318 318 318 318 317 316 316 313 312 311 309 306 305
332 331 331 331 329 329 329 328 328 327 326 327 326 324 323 321 320 320 322 321 321 321 321 320 318 318 317 317 317 318 318 318 318 318 318 317 316 315 313 310 308 305 304
331 330 330 329 328 328 329 328 327 325 326 325 325 323 323 323 322 322 322 320 322 320 320 322 320 319 318 317 316 316 318 319 319 319 318 317 316 315 312 311 307 305 305
331 330 329 329 328 328 328 328 327 325 325 325 324 322 323 323 323 321 321 321 322 322 320 322 322 320 319 318 317 314 316 317 319 319 319 318 316 315 313 312 311 311 310
329 329 328 328 327 328 328 328 327 325 324 325 324 323 322 322 322 324 322 322 321 321 321 321 321 320 320 320 320 319 318 314 314 317 319 319 318 317 317 317 317 317 317
329 329 328 328 327 327 327 327 327 326 324 324 324 324 321 323 321 323 322 323 322 323 322 321 321 319 319 319 319 320 319 319 317 313 312 318 320 320 319 319 319 319 319
325 324 326 327 328 326 326 326 326 326 324 324 324 323 322 322 323 323 321 323 322 322 322 320 319 321 320 319 319 319 319 318 318 318 318 316 315 318 320 320 320 319 318
322 324 323 322 324 325 325 325 325 326 324 324 323 323 323 321 323 323 323 323 323 323 323 323 322 320 320 320 319 319 319 318 320 320 320 319 318 316 315 315 317 319 319
323 322 321 322 323 324 324 324 324 325 323 322 323 323 323 324 324 322 323 322 321 321 322 322 323 323 322 321 321 322 323 321 320 320 320 320 320 318 317 317 316 316 316
323 322 320 321 321 322 323 323 323 322 322 321 324 323 323 324 323 323 323 322 320 319 319 321 322 323 323 323 323 322 322 322 322 322 321 320 319 319 318 316 316 316 316
324 321 321 320 320 321 322 322 323 323 322 322 324 323 323 322 322 322 322 321 320 321 319 319 319 318 319 321 321 320 319 320 321 322 321 321 320 317 316 315 315 316 315
325 323 322 320 319 320 320 321 322 322 323 322 323 322 321 322 321 321 320 320 321 321 321 320 319 318 318 318 319 318 317 317 318 319 319 318 317 317 316 316 315 315 316
325 324 322 321 319 319 319 320 321 321 320 319 317 314 318 319 320 319 319 321 321 321 321 320 319 319 318 318 317 317 317 317 317 317 317 317 318 318 318 317 318 316 316
323 322 323 322 320 319 319 319 319 319 317 316 316 315 316 317 317 318 319 320 320 320 319 319 318 317 316 316 316 317 318 318 319 319 318 318 318 318 317 316 315 315 314
323 324 322 322 321 319 318 317 317 317 316 315 315 315 317 318 318 317 318 317 317 317 317 318 317 316 315 317 317 318 319 320 320 319 319 313 312 313 312 308 307 307 306
321 321 320 318 317 317 317 318 317 316 315 315 315 315 315 316 317 317 316 316 317 317 316 316 316 317 318 318 314 307 310 310 311 312 311 308 306 305 303 303 302 301 300
314 314 313 310 309 309 312 317 316 317 317 316 316 315 314 315 315 315 315 315 313 313 314 310 311 303 300 298 301 300 301 302 304 303 302 300 301 298 296 293 292 292 292
304 301 300 303 303 303 306 309 311 311 309 305 304 303 303 303 302 302 300 301 301 300 302 301 295 291 290 290 292 294 294 294 296 294 295 295 293 292 291 290 290 289 289
294 293 293 293 294 294 299 303 306 303 299 296 296 296 296 298 298 298 297 296 292 291 292 292 290 287 287 290 291 291 291 291 290 289 289 290 289 288 288 287 286 286 286
289 288 288 289 289 289 292 294 297 294 291 288 288 290 292 293 292 294 293 289 287 286 285 285 285 285 285 287 289 290 290 290 290 286 284 286 288 288 288 287 286 285 285
286 286 286 286 287 288 288 289 290 288 286 285 285 285 286 287 287 288 288 287 285 285 285 285 284 283 283 282 283 284 285 286 287 287 282 284 286 286 288 288 287 286 285

GFSMA_925_thetae_093.txt.gz
Theta_e
336 336 335 334 332 332 331 329 328 327 326 327 329 329 330 330 330 330 328 327 327 327 326 325 325 324 323 322 321 320 320 319 319 319 317 316 316 316 315 315 314 315 315
336 336 335 333 332 331 329 328 328 327 326 327 326 328 330 330 329 329 327 326 325 325 324 324 323 322 321 320 318 318 317 318 319 318 317 315 315 314 314 314 314 313 313
336 335 334 332 333 331 331 329 328 327 326 326 327 327 328 329 329 327 326 326 325 323 323 323 322 321 321 320 318 318 318 318 317 318 317 316 314 314 313 313 312 310 310
336 335 334 332 332 332 331 329 327 328 326 326 326 327 328 328 329 327 324 324 324 322 322 320 320 320 320 320 319 318 318 317 317 317 317 315 313 313 312 311 311 310 310
335 335 333 332 332 332 330 329 327 327 327 325 326 327 327 326 327 324 323 323 323 322 321 320 320 320 319 319 319 318 318 317 318 317 317 315 313 312 311 310 309 309 309
334 333 332 332 332 331 330 330 328 327 325 327 327 328 327 324 325 323 322 322 321 320 319 319 320 320 319 318 318 318 318 318 318 318 318 317 315 313 312 310 308 307 306
333 333 332 331 331 330 330 329 327 326 326 326 326 326 324 321 323 323 322 321 320 320 319 319 320 320 318 317 317 318 319 319 319 319 318 318 317 315 313 311 308 305 305
333 332 331 331 330 329 329 329 328 327 326 326 325 323 322 321 321 322 322 321 321 321 320 320 320 319 318 317 317 317 318 320 319 319 319 317 316 316 314 311 307 305 305
331 331 331 331 330 329 329 328 328 327 326 326 325 322 322 322 321 321 322 321 321 321 321 320 320 319 318 317 316 316 316 317 319 319 318 317 317 316 315 313 309 306 306
329 330 330 329 329 329 328 328 328 326 325 325 325 323 322 322 321 321 321 322 322 322 320 322 322 321 319 318 318 317 315 314 316 318 319 319 318 317 315 314 313 313 313
329 329 330 329 329 328 327 328 327 325 324 324 324 324 323 321 321 320 320 321 322 321 322 320 321 322 320 319 319 319 319 317 315 313 315 318 319 319 319 318 318 317 317
329 329 329 328 327 326 326 328 327 326 324 324 324 323 322 321 321 320 319 320 320 322 320 322 321 322 320 320 320 319 319 319 318 318 316 313 314 318 319 319 319 320 319
328 327 326 327 328 327 326 326 327 326 324 324 324 323 322 322 321 321 321 321 321 321 321 321 321 320 321 320 319 319 319 319 319 318 318 317 317 316 315 314 315 317 320
325 324 323 324 325 325 326 326 326 326 325 324 324 323 323 321 322 322 322 322 321 321 322 322 320 320 319 320 320 319 319 319 319 319 318 319 319 319 319 319 318 317 316
324 322 323 320 321 322 324 325 325 325 325 324 323 323 323 322 323 322 323 322 321 320 322 322 323 322 322 321 320 320 320 321 321 321 320 320 320 320 321 320 319 319 318
323 321 320 320 320 321 322 323 324 324 325 324 323 323 322 322 322 322 322 321 321 319 317 320 321 321 321 321 321 321 320 320 319 319 319 318 321 321 318 320 318 318 318
323 323 320 318 320 320 321 322 323 323 322 322 322 322 322 322 322 322 321 320 320 320 319 319 319 318 318 318 318 320 320 320 319 318 317 317 317 317 317 317 318 318 317
324 323 321 320 320 320 320 321 322 322 322 322 322 322 322 322 320 320 320 320 319 318 321 319 319 317 317 319 318 318 318 317 317 316 316 316 317 317 317 317 317 316 317
325 324 322 321 320 320 320 320 321 321 320 321 321 321 321 320 318 317 320 319 318 319 319 320 319 319 319 317 316 314 315 315 317 318 318 317 318 316 315 315 314 311 310
323 324 323 321 320 319 319 319 319 320 320 319 318 318 317 315 315 316 316 316 316 319 319 319 318 317 316 316 315 316 316 317 316 312 310 308 307 305 305 304 302 302 302
321 321 321 319 318 318 318 318 318 317 317 316 316 316 316 316 317 317 317 317 317 318 317 317 316 316 316 313 311 307 307 307 307 306 302 302 301 301 298 297 298 295 294
313 314 312 312 312 313 316 317 317 316 316 315 314 314 312 315 316 316 316 316 316 316 316 316 311 305 299 298 298 300 301 302 303 299 298 296 295 293 292 291 290 290 290
303 302 302 304 304 304 308 314 316 313 311 309 307 305 304 303 305 306 304 303 303 305 306 307 300 294 291 291 294 294 295 295 293 292 292 291 290 289 288 287 287 287 287
294 294 293 293 295 295 300 305 308 304 300 298 298 298 298 296 297 298 298 296 293 294 294 294 292 289 290 291 292 292 291 290 289 287 289 289 288 288 287 286 285 285 285
288 288 289 289 289 289 293 294 299 294 291 290 291 293 294 292 292 293 293 289 286 285 285 285 285 285 285 288 289 290 290 291 289 284 284 287 286 286 288 288 287 286 285
285 286 286 287 287 287 288 288 288 288 286 286 286 287 288 288 288 289 289 287 285 285 284 285 284 283 283 283 284 285 287 287 287 283 281 285 284 284 285 287 286 286 285

GFSMA_925_thetae_096.txt.gz
Theta_e
338 337 337 336 335 334 332 331 331 329 328 326 328 328 330 331 330 330 330 330 331 332 330 329 328 328 326 325 324 323 322 321 319 319 318 318 317 316 316 316 315 315 315
336 336 336 336 335 333 331 331 330 327 327 326 326 329 328 329 330 330 330 330 329 328 327 328 328 327 325 323 322 321 321 320 319 318 318 316 316 315 315 314 314 315 315
336 335 335 335 334 333 332 331 329 328 327 327 326 326 328 328 329 330 329 328 327 326 325 325 324 323 322 321 320 319 318 318 318 318 318 316 315 314 313 314 314 313 315
337 336 336 335 333 332 331 331 329 329 327 326 326 327 326 328 328 329 328 327 326 325 324 323 322 321 320 320 319 318 318 318 318 318 318 316 316 315 314 313 312 312 312
337 336 335 335 334 332 331 330 329 329 328 327 327 326 326 328 327 328 327 326 325 323 322 322 321 320 319 319 318 318 318 318 317 318 318 317 316 315 315 313 311 310 310
336 336 335 334 332 331 330 330 330 328 328 326 326 326 326 327 326 326 326 325 324 322 322 321 320 319 319 319 318 318 320 319 318 318 318 317 317 315 314 312 310 309 307
334 334 334 333 332 332 330 330 329 327 327 327 327 327 326 326 325 325 325 323 323 322 321 320 319 319 318 318 318 318 319 318 318 317 318 317 317 315 315 313 310 309 307
332 333 332 332 332 331 330 329 328 326 326 326 326 323 323 320 322 323 323 323 323 322 320 319 319 320 319 318 318 317 318 319 318 318 318 317 317 316 315 315 314 311 309
330 331 331 332 331 331 331 330 328 327 326 326 326 323 323 323 320 321 321 321 321 321 319 318 318 320 320 318 317 317 317 318 319 318 318 317 317 316 316 315 313 310 308
330 331 332 331 330 330 329 329 328 327 326 326 325 324 322 321 322 322 320 320 320 320 320 319 319 320 320 319 317 316 316 316 317 318 318 318 317 316 316 316 314 312 311
328 328 330 331 330 330 329 328 328 326 326 326 325 323 322 321 320 320 322 320 320 320 320 320 320 319 319 319 318 317 316 315 315 315 317 318 318 318 317 317 316 315 314
326 327 328 329 329 328 328 328 327 326 325 325 325 323 322 321 320 320 319 321 321 321 321 321 320 321 321 320 319 318 318 318 317 316 314 314 316 318 319 319 319 318 318
326 326 328 328 328 328 328 327 327 327 326 325 325 324 323 321 321 320 320 319 319 320 321 321 321 320 320 321 320 319 319 319 319 318 318 317 316 314 314 315 316 316 317
327 327 328 328 328 327 326 327 326 327 326 325 324 324 323 321 320 320 320 320 320 320 321 321 321 321 321 321 320 319 319 319 319 319 319 318 318 317 317 317 317 316 317
328 328 326 325 324 324 325 325 326 325 326 324 324 323 323 322 321 321 320 321 321 321 321 321 321 321 320 320 320 320 320 319 319 319 318 318 318 318 318 319 319 319 319
325 324 324 324 320 319 321 322 323 324 325 324 324 324 323 322 321 322 322 321 322 321 320 322 322 321 320 319 320 320 320 320 320 319 318 318 319 318 318 319 319 319 319
324 323 322 321 319 320 319 321 322 323 324 324 324 324 323 322 321 322 321 321 322 320 317 318 318 320 321 320 320 320 318 317 317 318 319 319 318 317 317 317 318 318 318
323 322 321 320 319 318 319 321 322 323 323 323 323 323 323 322 321 321 321 321 320 320 319 318 319 319 318 319 320 320 319 318 318 316 316 315 316 316 317 317 316 316 316
324 323 321 319 319 319 319 320 321 322 322 322 322 323 322 321 321 320 320 320 319 318 318 318 318 318 318 318 318 317 314 314 315 315 316 316 316 316 315 313 310 306 304
324 323 321 320 319 319 318 319 320 320 319 320 322 322 321 321 321 320 320 319 318 317 317 316 318 319 319 318 315 314 315 314 310 307 306 304 303 303 301 301 299 298 297
322 321 320 319 318 318 318 318 319 318 318 318 318 318 318 319 320 319 319 318 316 316 317 318 318 317 316 315 314 312 310 308 302 301 299 298 298 296 295 294 294 293 292
315 317 315 314 312 313 316 317 317 317 316 316 314 314 315 316 315 316 316 316 316 317 316 317 316 314 307 305 304 303 303 303 300 296 295 293 292 292 291 291 290 289 289
304 303 304 305 304 304 307 313 316 315 313 311 309 308 306 305 308 310 312 313 313 313 313 313 308 300 297 297 298 297 297 297 292 291 292 289 289 289 288 287 288 287 286
295 295 294 295 295 293 298 301 308 308 304 301 301 301 302 300 300 303 302 300 297 297 299 301 298 292 293 293 293 294 294 292 288 288 289 288 286 287 287 286 286 286 285
288 289 289 290 290 289 291 293 297 295 293 293 294 294 295 295 294 296 298 291 287 285 285 287 287 287 289 290 291 292 290 290 287 283 285 287 284 286 287 287 286 285 284
285 286 286 286 286 287 289 290 289 288 287 286 287 288 289 288 288 290 290 288 285 284 284 284 284 285 285 285 286 288 289 289 286 280 281 285 282 282 284 286 284 282 284

GFSMA_925_thetae_099.txt.gz
Theta_e
340 339 339 338 337 335 333 332 330 329 328 332 330 331 331 329 330 332 333 333 331 332 332 331 330 330 329 327 326 324 323 322 321 319 318 317 317 318 317 317 316 316 316
339 338 339 337 336 336 334 333 330 330 330 331 331 328 327 327 327 330 331 331 330 330 332 331 331 330 328 325 324 322 321 321 320 318 318 317 317 317 316 316 315 315 316
338 337 337 337 336 335 334 333 330 330 330 329 326 328 328 326 327 328 329 330 330 329 330 329 328 328 328 326 323 321 320 320 319 318 317 317 316 316 315 315 314 315 315
336 336 336 335 335 334 333 332 331 329 327 327 326 326 328 327 327 327 328 329 330 328 327 326 326 325 324 323 321 320 319 318 318 318 317 317 316 315 314 314 314 314 315
335 335 335 334 334 334 332 332 330 329 328 327 328 326 327 327 327 326 328 329 328 327 325 325 324 323 322 321 319 319 319 318 318 317 317 317 316 315 314 314 314 314 314
337 336 336 335 336 333 331 330 330 329 328 328 327 327 327 326 326 327 327 328 327 326 324 323 322 321 320 319 318 318 319 318 318 317 317 316 316 316 315 314 314 314 314
338 336 336 335 334 333 329 329 329 329 328 328 327 326 326 326 326 326 327 327 327 325 323 322 322 320 319 318 318 317 320 320 318 318 317 316 316 316 316 315 314 314 314
338 336 336 335 333 331 328 327 328 327 327 327 326 325 323 321 324 325 326 326 326 324 323 322 321 320 319 318 318 318 318 319 318 318 317 316 316 316 316 315 316 315 314
337 335 332 333 332 333 328 326 329 328 327 327 326 324 323 324 321 322 324 324 324 324 323 322 320 319 318 318 318 318 317 318 318 318 318 317 317 316 316 315 314 314 315
334 332 331 330 332 333 330 327 328 327 326 325 325 325 323 321 323 322 320 322 323 323 322 322 320 319 319 319 318 318 317 317 318 318 318 317 317 316 316 316 315 315 315
333 329 328 330 329 331 332 328 326 326 326 326 325 324 322 321 322 321 323 319 319 321 321 321 320 319 319 320 319 318 317 316 317 318 318 318 317 317 316 316 316 315 315
329 329 329 329 330 329 328 328 326 326 325 326 325 324 323 321 321 321 321 321 320 319 319 319 319 318 318 319 319 319 318 317 316 315 316 317 318 318 318 318 318 317 317
329 328 327 327 328 328 327 329 328 327 326 326 325 324 323 321 321 322 321 321 320 319 319 320 320 320 319 319 319 319 318 317 317 317 316 315 314 315 316 317 317 318 318
327 326 326 327 326 329 329 327 327 327 326 326 325 325 323 322 320 320 320 320 319 319 319 320 320 320 320 319 320 321 320 318 318 318 318 318 317 316 316 316 315 315 315
325 325 325 325 327 328 327 327 326 326 326 325 323 325 323 322 321 320 320 320 319 320 320 320 321 321 321 321 320 320 321 319 319 319 319 318 318 318 317 317 317 317 317
326 326 326 326 327 325 324 324 325 325 325 324 324 324 324 322 320 320 320 320 320 319 319 320 320 320 320 321 320 320 321 319 319 319 319 319 318 318 318 319 318 318 318
327 327 326 324 323 322 322 321 319 320 321 323 324 324 324 323 321 320 320 320 319 320 318 319 321 320 320 321 320 319 320 320 320 318 318 318 318 318 318 318 318 317 317
326 323 322 321 320 321 319 319 319 321 322 322 323 324 324 323 322 321 320 320 321 319 319 317 317 319 321 320 320 319 319 319 319 319 319 318 318 318 318 317 317 317 316
323 322 322 321 320 319 318 318 320 321 321 321 322 323 323 322 321 320 320 320 320 320 319 318 318 318 318 319 319 318 317 316 314 314 314 314 314 314 314 314 313 313 311
322 322 322 321 319 318 319 318 320 320 320 320 321 322 323 322 321 320 319 320 319 318 317 317 317 317 317 317 317 317 313 310 307 304 304 303 302 301 301 301 300 299 299
322 322 321 319 318 317 318 318 318 318 317 317 317 320 321 320 320 319 319 319 319 319 318 317 317 317 317 316 316 313 312 307 300 297 297 295 296 295 294 294 294 294 293
316 318 316 314 314 313 315 318 317 316 316 314 313 312 313 317 319 319 319 318 318 317 316 316 316 316 314 313 312 310 308 299 297 296 295 292 292 292 291 291 290 289 288
304 306 304 305 306 307 310 316 315 314 312 308 306 306 308 306 310 313 314 315 314 315 315 316 315 310 308 306 307 303 302 299 291 291 292 288 289 289 288 289 286 285 285
292 292 293 294 294 294 301 308 310 306 302 300 299 299 299 299 300 304 305 304 300 301 303 305 305 298 298 297 298 299 297 292 288 288 291 287 287 287 286 286 286 285 284
288 287 287 289 289 289 293 297 302 298 295 292 292 293 294 293 293 297 300 293 288 286 287 289 290 291 291 292 293 294 292 291 286 284 287 285 284 286 286 286 285 285 284
285 286 285 286 286 287 289 292 292 290 288 287 287 287 288 288 289 289 289 286 283 282 284 285 285 287 288 289 291 292 291 289 283 279 283 283 281 284 285 284 282 282 282

GFSMA_925_thetae_102.txt.gz
Theta_e
341 340 339 338 338 336 335 334 333 333 332 331 331 330 332 331 330 331 332 332 333 332 334 333 331 330 330 328 327 326 325 323 322 320 318 317 318 317 317 317 317 316 316
341 340 340 338 338 337 335 334 333 332 331 329 329 331 329 330 328 328 328 331 332 331 333 333 332 331 329 328 327 325 323 322 321 320 318 317 317 317 316 316 316 316 316
340 339 339 338 338 337 336 333 332 331 329 330 330 330 329 328 327 326 326 326 329 330 331 330 330 331 329 328 325 324 322 320 319 318 318 317 317 316 316 315 315 316 315
339 339 338 338 337 337 335 333 332 331 330 331 329 329 328 326 326 325 325 327 329 330 329 330 329 328 328 327 324 323 320 319 318 317 317 317 316 316 315 315 314 315 315
337 338 338 336 335 335 334 332 330 330 329 329 328 326 326 327 327 325 326 326 327 329 328 329 328 327 327 325 324 322 320 319 318 317 316 317 316 315 315 315 314 314 314
336 335 336 335 334 332 331 331 330 330 329 327 327 327 326 327 327 327 327 326 326 328 328 326 325 326 324 323 322 321 321 319 318 317 317 317 316 316 314 314 314 314 313
335 335 335 335 334 331 331 331 329 329 328 328 327 327 327 326 326 327 327 326 326 327 328 325 323 323 322 321 320 319 318 318 319 317 317 316 316 316 315 315 315 314 314
334 335 335 335 334 333 332 331 329 328 328 328 327 325 324 323 326 326 325 326 326 326 327 324 323 322 321 320 318 317 318 320 319 318 317 317 316 316 315 315 315 315 314
336 336 337 334 334 332 331 329 329 328 328 327 327 325 323 325 321 322 325 326 326 326 326 324 322 322 320 319 318 317 317 319 318 318 317 317 316 316 315 315 316 315 314
337 338 338 336 335 331 331 330 328 328 327 327 326 326 323 322 322 322 322 324 324 325 325 324 322 322 320 319 318 317 317 318 318 318 317 317 316 316 316 315 315 315 315
336 338 337 336 332 329 330 329 327 327 327 327 327 325 322 321 321 319 322 319 320 322 324 323 322 321 320 318 318 318 317 317 317 317 317 317 317 317 316 316 316 316 315
336 336 335 333 329 329 329 328 327 326 327 326 325 325 325 322 320 320 320 321 321 320 322 322 322 321 320 319 319 318 318 318 317 316 318 318 318 318 317 317 317 317 316
330 333 332 329 328 329 328 328 327 326 325 324 324 325 324 324 322 322 322 321 321 319 319 321 321 321 320 319 318 319 319 318 317 316 316 317 318 318 318 317 317 318 318
330 330 331 328 328 328 328 328 328 325 323 323 323 324 325 324 323 322 322 321 320 319 319 320 320 320 319 318 318 318 319 319 318 317 316 316 315 315 315 316 316 317 317
328 329 329 328 327 325 327 326 325 323 325 323 324 325 325 324 323 321 321 321 321 322 321 319 319 319 320 319 319 319 319 320 320 319 318 317 317 317 316 316 316 316 316
327 328 327 326 326 326 325 325 325 326 325 326 325 325 324 324 323 321 320 321 321 320 320 320 320 320 320 320 320 320 319 319 320 320 319 318 318 318 318 317 317 317 317
327 326 325 324 324 325 326 325 324 322 322 322 323 324 324 324 322 321 320 320 320 319 318 318 319 320 320 320 321 320 320 319 319 319 318 318 318 318 318 318 318 318 318
326 325 324 323 324 323 321 321 320 320 319 319 320 321 321 322 323 321 320 320 320 320 319 317 318 319 320 320 320 319 318 317 318 318 319 318 318 318 318 317 318 318 316
325 325 325 323 322 320 319 319 319 318 319 320 320 321 322 322 323 321 320 320 320 319 319 318 317 319 319 319 319 318 318 318 316 314 316 316 315 314 314 313 311 311 310
325 322 321 321 320 319 319 318 318 319 319 319 319 319 320 321 323 323 320 320 320 319 319 319 318 317 318 317 317 315 310 309 306 306 306 307 305 304 304 305 304 300 299
322 321 321 319 318 318 318 318 318 318 316 316 315 315 316 321 322 321 320 320 319 319 318 318 317 317 316 315 315 313 309 306 301 300 302 299 299 297 295 294 294 294 292
316 316 315 314 313 314 317 318 317 316 312 310 309 307 307 309 315 319 319 319 319 318 318 317 316 316 316 316 316 314 308 299 296 296 296 292 293 292 291 291 289 288 288
301 301 302 303 301 304 309 313 316 314 310 305 304 303 302 303 304 308 312 313 314 316 317 317 316 316 313 314 315 309 306 302 294 292 293 288 289 288 288 287 286 285 284
291 290 291 292 294 294 298 303 310 307 303 299 299 299 298 298 299 304 302 305 302 303 304 309 310 304 305 306 305 305 303 296 290 290 291 287 287 286 286 286 285 284 284
287 287 287 288 288 289 292 295 298 297 294 292 292 293 294 294 294 297 299 292 288 287 288 292 292 292 293 294 297 298 292 291 286 285 288 286 286 286 285 285 285 285 284
285 286 286 286 286 286 287 289 291 289 287 287 287 286 288 289 291 292 291 287 284 283 286 289 290 291 291 292 292 293 292 290 284 283 285 284 284 286 284 280 281 281 282

GFSMA_925_thetae_105.txt.gz
Theta_e
340 339 339 338 338 337 337 336 335 335 335 335 335 335 334 333 331 329 331 331 331 332 331 333 326 332 331 330 329 328 326 323 321 320 319 319 319 319 318 318 318 317 317
341 341 340 338 338 338 337 336 335 335 335 333 333 333 334 332 330 330 329 327 328 332 331 334 330 332 330 329 328 327 326 324 323 321 318 317 318 318 317 317 316 316 316
338 340 341 338 338 338 337 336 334 333 333 332 331 330 332 331 328 327 326 325 325 327 331 334 333 331 332 329 327 326 325 323 321 320 318 316 317 317 316 316 315 315 315
338 339 340 340 337 337 337 335 334 332 331 331 331 330 331 329 328 326 326 327 327 327 328 331 331 330 330 330 327 325 324 322 320 319 317 317 317 316 316 315 315 315 315
338 339 341 340 338 337 336 336 334 332 331 330 331 330 331 329 327 326 325 325 326 325 327 331 325 328 330 329 327 325 323 321 319 318 317 316 316 316 315 315 315 314 315
340 340 339 336 335 334 334 334 333 333 331 330 329 328 329 328 326 327 325 324 324 326 326 329 328 329 327 327 326 325 325 322 319 318 317 317 316 315 315 315 315 314 314
338 337 337 336 336 334 331 332 332 331 329 329 329 328 327 327 327 326 326 326 326 326 325 327 328 329 327 326 325 323 325 323 320 319 318 317 316 316 315 314 315 315 314
333 335 335 334 334 333 330 330 330 329 329 328 327 326 326 326 327 326 327 327 327 326 326 325 327 327 327 325 323 322 321 322 321 320 318 317 316 315 315 315 315 315 314
332 333 334 333 333 332 330 332 330 330 328 328 328 326 325 328 324 326 326 326 326 326 325 326 326 325 325 324 322 320 319 318 319 320 319 317 316 315 315 315 315 316 315
333 333 333 333 332 333 332 331 331 330 328 328 327 327 325 324 327 327 322 325 325 325 325 325 325 324 324 323 321 319 318 317 319 318 318 317 316 316 315 315 315 316 315
333 332 333 333 333 333 332 331 329 329 329 328 327 326 324 322 321 324 326 322 324 325 324 324 325 323 323 322 321 319 317 316 317 319 318 317 317 316 316 315 315 315 315
332 333 333 333 333 334 332 330 329 329 328 327 327 327 326 323 322 323 325 324 323 321 322 322 324 323 322 322 320 319 317 317 317 318 318 318 317 317 316 317 316 316 316
333 332 333 332 334 334 332 329 328 328 327 327 327 326 326 325 324 323 325 325 324 319 319 321 323 324 322 321 320 318 318 317 317 317 317 317 317 317 318 318 317 317 317
331 331 332 332 333 332 329 328 328 327 327 326 326 325 325 324 324 323 324 324 325 322 319 319 321 323 322 321 320 319 318 318 318 318 317 316 317 318 318 318 318 317 317
330 330 331 332 331 330 329 328 327 327 325 326 325 324 324 324 325 324 322 322 323 324 322 319 319 321 320 321 320 319 318 318 319 319 318 317 316 316 316 316 316 316 316
330 329 329 329 328 327 328 327 327 326 326 325 323 323 324 325 325 324 324 323 322 322 324 321 320 320 320 320 320 319 318 317 318 319 319 318 317 317 316 316 316 316 316
327 327 327 327 327 326 325 326 325 324 324 325 324 324 324 325 324 324 323 322 322 323 323 320 319 320 320 320 320 319 319 318 318 319 319 319 318 318 317 317 317 317 317
326 326 325 327 326 325 325 325 325 324 324 322 323 323 323 323 323 323 322 322 321 321 322 319 319 319 318 319 320 319 318 318 318 318 319 319 318 318 317 317 317 317 317
325 325 326 325 324 323 324 324 322 321 321 321 321 321 320 321 322 321 321 321 321 320 320 318 317 318 318 319 318 316 316 314 314 314 316 317 318 318 317 317 316 315 314
323 323 322 323 324 323 321 320 319 319 318 318 319 318 318 318 319 321 322 321 320 320 319 319 317 317 318 317 317 314 306 305 304 307 309 310 310 308 307 307 306 304 302
321 320 321 321 321 319 319 318 318 318 318 317 315 315 314 311 314 320 321 321 320 320 320 319 318 318 317 316 313 309 303 299 297 298 298 296 298 296 293 294 292 292 291
313 311 315 316 315 312 315 317 317 317 315 313 311 308 307 307 306 313 319 320 319 319 319 319 318 318 317 316 313 309 299 297 296 294 294 291 294 292 291 291 290 289 288
297 299 299 304 302 302 306 312 313 313 310 306 304 301 303 302 303 303 306 311 310 315 318 318 317 317 313 315 313 306 302 302 295 293 294 288 290 289 288 286 286 285 285
289 290 291 292 293 292 297 301 302 302 300 297 296 296 297 298 300 301 301 302 297 300 305 308 306 306 313 314 315 310 307 298 292 291 292 287 286 286 286 285 285 285 284
287 287 287 289 289 289 291 293 294 292 291 289 290 291 292 293 295 298 300 294 289 288 291 294 294 295 298 302 304 307 298 295 288 287 288 286 285 284 285 285 284 284 284
284 284 284 284 285 286 290 291 290 287 286 285 285 285 286 288 292 292 293 291 286 285 288 292 291 292 293 292 295 296 293 290 286 285 285 285 285 285 281 281 282 282 282

GFSMA_925_thetae_108.txt.gz
Theta_e
343 342 340 340 341 341 341 341 340 340 339 338 338 338 337 337 336 337 335 332 332 331 331 334 334 334 332 332 332 331 329 327 325 325 324 323 321 320 320 320 319 319 318
343 342 341 342 340 340 341 340 340 339 338 338 337 337 337 337 335 335 335 331 330 329 329 333 333 332 331 331 331 330 327 325 322 322 321 320 319 319 319 319 319 318 317
341 340 340 340 341 339 341 340 340 339 338 337 337 336 336 335 334 334 332 328 328 326 325 326 330 325 328 331 330 329 327 325 323 322 320 318 319 318 318 318 317 316 316
340 340 340 339 339 340 341 340 339 338 338 337 336 335 335 335 334 334 330 327 326 327 327 325 326 327 331 331 329 328 326 325 323 321 319 317 318 317 317 316 316 316 316
337 337 338 338 338 337 340 339 338 338 337 336 335 335 333 334 333 332 328 326 325 327 328 327 326 328 332 330 329 328 326 324 321 320 319 317 317 317 316 316 316 316 315
336 336 337 337 336 336 337 337 336 336 336 335 334 333 333 333 332 332 330 326 325 327 326 326 325 327 330 329 329 327 327 325 322 320 318 316 316 317 316 315 315 315 315
336 336 337 337 335 335 335 335 335 335 333 333 331 330 330 331 331 331 330 327 328 327 325 325 325 327 325 327 328 327 328 326 324 319 318 317 316 316 315 315 315 315 315
335 336 336 336 335 335 334 335 334 332 332 332 330 329 330 329 330 330 329 328 328 328 327 326 324 325 329 329 329 326 326 326 325 320 318 317 317 316 315 314 315 314 315
334 334 335 336 335 336 334 333 333 332 331 330 331 329 328 330 327 328 329 329 330 329 327 329 326 325 326 328 328 326 324 324 324 321 318 318 317 316 315 315 315 315 315
336 335 335 336 336 335 334 333 332 334 332 330 330 330 327 327 330 331 328 329 330 329 328 329 328 327 325 326 327 326 324 323 322 320 318 319 317 317 316 315 315 315 315
334 336 335 335 335 334 333 333 332 334 333 332 330 328 329 325 324 328 331 328 327 328 328 327 326 326 326 325 325 324 322 320 319 318 319 320 318 316 316 315 315 315 315
334 335 334 335 334 333 333 332 334 334 332 332 332 331 329 327 326 325 328 328 329 327 325 325 325 325 324 325 324 324 321 320 317 318 319 318 318 317 316 316 315 315 315
334 334 334 334 333 333 334 335 334 333 332 331 331 331 330 330 328 327 327 328 329 327 324 323 323 324 324 324 323 322 321 319 316 316 319 319 318 317 317 316 316 316 316
334 333 333 334 334 334 334 334 334 333 332 331 331 330 328 328 326 326 324 325 325 325 324 324 321 322 323 324 322 322 321 319 317 317 317 319 319 318 317 317 317 317 317
334 332 332 333 332 333 333 332 333 331 330 330 329 328 327 326 326 326 325 324 324 326 325 324 323 321 322 323 322 321 320 320 318 317 317 317 317 317 317 317 318 318 317
334 332 332 332 331 331 331 332 331 330 329 330 328 328 326 326 325 325 326 326 325 324 326 324 324 323 321 321 321 320 320 320 319 318 317 318 317 317 316 317 318 318 317
332 332 331 330 330 330 330 330 328 329 329 329 328 327 326 326 325 325 326 326 325 325 325 323 324 324 323 321 321 320 320 320 319 319 319 319 318 317 316 316 316 316 316
331 330 330 329 329 328 329 328 328 328 328 328 326 325 326 325 325 325 325 325 325 324 325 324 323 323 322 321 319 319 320 320 320 319 318 319 319 318 318 317 317 316 316
328 328 328 328 328 328 328 327 327 326 326 326 326 325 325 325 325 325 324 324 323 323 323 323 322 322 321 319 320 320 319 318 318 317 317 318 318 318 318 317 317 316 316
325 326 326 326 326 325 325 325 324 323 322 323 322 321 320 320 319 319 319 322 322 322 322 322 321 319 319 319 319 313 308 307 306 307 310 312 314 314 314 314 315 314 312
322 323 323 324 322 322 323 323 323 322 320 318 318 316 315 314 314 312 313 316 321 321 321 321 320 319 318 318 313 309 304 301 297 298 299 298 301 302 300 302 301 303 302
303 312 309 312 314 314 318 320 321 318 316 314 311 308 306 306 304 305 307 312 316 319 320 320 320 318 318 317 314 307 299 297 295 294 293 292 294 292 292 293 293 293 293
292 294 293 295 297 302 311 315 316 313 308 304 301 299 298 299 298 300 302 302 306 307 313 318 319 318 318 317 312 306 303 302 296 293 294 288 291 290 289 288 288 287 287
288 290 290 292 292 292 299 305 308 303 297 294 293 294 294 295 296 296 298 298 298 299 300 306 307 305 311 313 310 308 304 298 294 292 293 287 287 286 286 286 286 285 285
285 284 285 287 289 290 293 294 299 294 290 288 288 289 289 289 290 291 292 291 288 288 289 291 292 293 297 303 304 306 296 295 291 290 290 287 285 284 285 285 285 285 284
283 283 283 283 284 285 288 291 292 288 286 284 284 284 284 285 287 290 289 288 284 284 289 290 290 294 294 295 297 298 296 295 288 287 287 286 284 284 281 282 283 283 283

GFSMA_925_thetae_111.txt.gz
Theta_e
341 340 340 339 343 341 341 341 340 340 339 338 339 339 339 338 338 338 337 333 332 332 333 331 333 332 332 334 333 331 330 329 327 326 325 324 323 322 322 321 321 319 319
341 341 340 339 338 341 341 341 340 340 339 339 338 339 338 338 337 337 336 336 330 331 332 332 331 329 332 334 332 331 330 329 327 326 324 323 322 321 321 320 320 319 318
343 343 342 339 338 337 341 340 339 340 340 339 338 339 337 338 337 336 335 335 332 330 330 328 328 325 323 327 331 331 330 329 327 326 324 323 321 320 320 319 318 318 317
341 343 342 341 341 339 339 340 340 339 339 339 338 337 337 337 336 336 335 334 333 329 326 327 326 324 324 327 331 330 330 327 324 323 322 321 320 319 318 318 318 317 316
341 341 343 341 341 340 339 340 339 339 339 338 338 336 336 336 336 334 333 334 332 327 326 327 327 325 327 325 326 328 329 327 325 323 321 319 318 319 317 318 317 316 317
341 341 341 341 340 340 340 340 340 339 339 337 337 335 335 336 334 333 333 332 331 329 325 326 327 326 326 326 328 328 329 327 325 324 321 319 317 318 317 316 316 316 316
340 340 340 339 339 339 339 339 339 337 337 337 338 336 335 334 333 332 332 332 331 329 326 326 325 325 326 325 325 330 329 329 326 325 321 319 317 317 317 316 316 316 316
340 340 339 338 339 337 338 337 337 337 337 337 335 334 335 333 332 333 332 331 331 330 328 326 325 324 325 325 324 329 329 328 326 325 321 318 316 317 316 316 315 315 315
341 340 338 339 338 337 337 337 336 335 335 336 334 332 332 333 330 331 332 331 331 330 330 329 326 325 324 324 325 326 328 327 326 324 321 318 317 316 316 315 315 315 315
339 339 339 337 339 337 337 336 335 336 335 332 334 333 332 331 332 332 331 331 331 330 330 330 328 328 326 324 325 327 327 326 326 324 321 319 317 317 316 315 314 315 315
337 337 337 337 338 337 337 336 335 335 334 333 333 332 333 331 330 331 332 331 330 331 329 329 330 328 328 327 325 326 328 325 326 325 322 319 318 317 317 316 315 315 315
336 336 336 335 336 338 336 337 336 334 334 334 333 331 331 331 329 330 331 329 330 329 329 329 330 329 328 327 327 326 327 326 325 324 322 319 318 318 317 316 315 315 315
336 336 334 336 336 337 336 336 336 334 334 335 334 332 331 331 329 329 330 330 329 329 328 327 328 328 326 326 326 326 326 325 323 323 320 319 319 319 317 316 316 315 315
334 336 334 335 335 336 336 336 335 334 333 335 334 333 332 331 332 331 330 329 330 329 328 327 325 326 326 325 324 324 325 323 322 320 318 318 319 319 318 317 316 316 315
333 337 334 334 335 335 336 336 335 336 335 334 334 333 332 332 330 330 329 327 328 328 328 326 327 325 323 323 323 324 324 321 320 319 317 317 319 319 318 317 317 317 316
333 336 336 334 334 335 335 335 336 336 335 334 333 332 331 330 329 329 329 328 327 327 329 326 326 326 324 323 323 324 324 322 321 319 317 316 317 319 319 318 317 317 317
332 334 335 334 333 334 334 334 334 334 333 332 331 331 330 330 329 328 328 327 328 327 328 326 326 326 326 324 323 323 322 321 320 320 318 317 317 317 317 317 317 317 317
331 332 334 333 332 333 332 332 333 333 331 331 330 330 330 329 329 328 327 327 327 327 326 327 326 326 325 323 322 322 321 321 319 320 319 318 317 317 317 317 317 316 317
330 330 332 333 332 331 330 332 333 331 330 330 330 329 328 328 327 327 327 326 327 326 325 325 325 324 325 324 323 321 320 320 320 320 318 318 318 318 318 318 317 316 316
327 330 331 331 330 330 329 330 330 330 328 327 328 327 326 325 324 323 321 323 324 324 324 323 323 323 323 322 322 318 314 316 315 314 318 318 318 318 318 318 318 317 316
310 317 324 327 328 328 329 329 329 328 326 325 324 321 319 318 317 317 315 314 315 319 321 321 322 321 321 320 313 311 305 304 301 301 307 306 308 310 310 312 312 313 313
296 299 302 307 311 321 325 325 324 322 321 318 313 311 309 308 308 308 307 305 305 306 312 321 321 321 319 319 314 308 300 298 296 296 298 294 297 297 296 298 299 300 300
289 289 292 294 294 295 312 323 321 314 308 306 302 299 298 298 298 298 299 299 298 300 300 304 311 314 317 318 315 306 303 303 296 294 296 290 292 292 291 291 291 290 292
286 286 286 289 293 291 292 294 309 302 299 296 295 294 294 293 295 296 294 294 293 292 292 294 294 298 303 314 313 309 305 298 294 293 297 289 289 287 289 287 288 288 287
284 283 284 285 286 289 291 292 290 288 287 287 287 288 289 290 290 290 291 289 288 287 288 290 291 292 296 303 309 309 298 296 292 291 292 288 286 285 286 285 285 285 284
283 283 282 282 283 284 287 290 291 287 286 284 284 284 285 286 289 289 288 286 283 283 286 290 291 292 293 296 297 298 296 297 290 289 289 286 284 285 282 283 284 283 283

GFSMA_925_thetae_114.txt.gz
Theta_e
345 343 342 343 344 342 342 340 342 341 338 338 339 339 338 338 337 337 337 334 332 331 333 333 332 332 332 332 331 332 332 330 328 327 326 325 324 324 323 322 321 320 319
341 344 342 343 344 344 341 341 339 338 339 338 337 337 337 338 337 337 336 335 334 330 331 333 331 331 332 329 326 329 331 330 328 327 325 325 323 323 323 321 320 319 318
343 343 343 340 340 344 341 338 341 340 338 340 339 337 337 337 337 337 335 335 335 330 328 330 331 331 329 326 325 325 327 330 328 327 325 324 323 322 322 321 320 318 318
341 344 342 342 342 339 342 339 338 339 339 340 339 339 338 337 335 335 335 334 334 331 329 329 328 327 326 325 324 324 328 330 328 327 325 324 323 322 321 320 319 317 318
346 342 344 340 340 342 341 342 339 339 340 339 339 338 337 335 335 335 334 334 334 333 330 327 326 326 326 325 324 325 326 330 329 327 326 324 322 321 320 319 318 317 317
340 343 343 344 340 341 342 341 341 341 340 338 339 338 336 335 334 335 334 334 333 332 329 326 325 325 325 325 326 327 328 330 329 327 324 322 321 319 319 318 317 317 316
343 342 343 344 342 340 339 340 341 340 340 339 338 336 335 335 334 334 333 333 332 332 330 327 326 325 325 326 327 326 327 330 329 326 324 322 320 318 318 316 317 316 316
342 342 343 343 343 340 338 339 341 340 339 338 338 335 334 334 334 333 332 332 331 331 330 328 326 325 325 325 326 326 326 329 330 328 325 322 319 318 317 317 316 316 316
341 341 342 342 342 340 338 337 340 339 337 336 337 332 331 331 330 332 334 331 332 331 331 330 327 325 324 324 325 325 324 326 330 328 325 323 319 317 317 316 316 316 315
332 339 338 341 341 340 338 336 337 338 336 335 336 334 331 331 329 331 332 332 331 331 330 330 329 327 325 324 323 324 323 327 328 328 325 323 319 317 317 316 316 315 315
328 334 338 340 340 340 339 336 335 337 335 334 334 334 333 332 332 330 330 330 332 332 331 330 330 329 327 325 324 324 324 324 326 328 326 324 319 317 316 316 315 315 315
325 333 337 337 339 338 338 337 336 336 335 335 333 333 333 332 331 329 328 328 329 330 330 330 329 329 328 328 327 325 324 325 326 326 326 324 321 318 317 316 315 315 315
319 327 334 334 337 337 336 337 338 336 335 334 334 332 332 332 331 329 330 328 327 330 330 330 329 329 329 329 328 327 326 325 326 326 326 325 322 319 318 317 316 315 315
316 320 331 333 335 335 334 334 335 337 336 335 334 333 332 330 331 329 328 329 328 327 328 327 328 328 328 328 328 328 327 327 326 326 326 326 323 320 318 317 317 316 315
310 315 321 331 335 336 334 334 336 336 336 335 335 334 333 332 331 330 330 330 329 327 325 328 327 326 326 326 326 325 326 326 326 326 325 325 323 320 318 318 317 316 316
307 313 318 329 335 335 335 335 335 334 334 335 333 329 332 331 328 331 331 329 328 327 324 326 326 327 326 325 324 324 323 324 325 325 324 324 323 319 319 319 318 317 316
309 311 318 327 333 334 335 335 335 334 334 334 334 332 331 322 327 330 329 328 328 327 325 326 326 326 327 326 324 322 324 323 324 324 323 321 320 318 319 319 318 318 317
319 316 321 329 332 333 333 334 334 334 334 333 333 333 331 329 330 329 329 329 328 328 327 325 326 326 326 326 325 323 324 322 323 323 321 320 318 316 318 319 319 318 317
314 322 329 330 331 332 331 334 334 334 335 334 333 332 331 330 330 329 328 328 328 328 327 327 326 326 325 325 325 323 322 322 321 322 321 320 318 316 316 318 318 318 317
301 312 322 327 329 331 332 332 333 333 333 332 331 330 330 329 329 328 326 325 325 325 326 326 325 324 324 324 324 322 318 318 319 319 320 319 319 317 316 317 317 317 317
293 295 304 308 316 322 323 331 331 332 332 328 328 327 324 324 324 324 322 318 318 316 317 321 321 322 323 322 321 316 312 309 307 309 315 316 318 317 317 317 317 316 316
288 290 293 293 295 297 312 329 330 330 322 323 317 311 309 313 313 314 313 316 314 310 307 309 318 320 321 321 320 316 307 300 298 300 304 300 302 307 308 306 308 311 313
287 286 287 289 290 291 296 310 311 311 308 305 305 304 303 303 307 306 304 306 302 300 299 299 300 302 304 315 313 311 307 306 299 297 299 290 293 292 294 294 295 300 298
284 284 285 286 287 289 291 291 291 294 293 293 295 294 297 297 299 302 301 297 294 293 292 293 292 291 293 301 307 309 307 299 295 294 296 289 289 288 290 291 292 291 292
284 284 283 283 284 285 291 293 290 286 287 286 287 289 290 291 291 294 296 290 288 287 288 289 289 290 294 298 302 306 300 296 292 292 292 288 287 285 286 286 287 288 289
285 284 284 284 283 283 284 287 289 287 284 284 284 285 285 286 287 288 289 289 284 283 287 289 290 291 292 294 297 299 297 298 291 290 291 287 285 286 283 284 284 284 284

GFSMA_925_thetae_117.txt.gz
Theta_e
342 346 345 345 343 342 341 340 338 339 339 337 336 339 339 338 338 338 336 335 332 332 332 332 333 332 333 332 332 327 324 330 330 329 328 328 326 325 324 323 322 321 320
342 342 343 344 341 342 342 340 340 340 340 338 337 337 339 338 338 337 336 335 333 330 331 332 332 331 332 332 331 326 324 327 331 328 328 327 326 324 323 322 321 320 319
344 343 343 343 342 342 342 341 340 340 341 338 338 337 336 337 337 337 336 335 334 332 330 330 331 332 332 331 332 327 326 326 328 328 327 326 325 324 323 322 321 319 318
343 345 342 344 341 343 343 343 341 340 340 337 338 339 338 337 337 336 336 335 335 334 331 330 331 331 331 330 327 327 324 323 329 328 327 325 324 323 323 322 320 319 317
345 343 343 343 342 342 342 343 341 340 340 337 339 339 337 337 336 336 335 335 334 333 332 328 329 330 329 328 326 325 324 324 324 329 327 325 324 323 322 321 320 318 316
341 341 344 342 343 342 342 342 341 340 339 338 339 339 338 337 336 335 335 334 334 334 333 332 328 326 326 326 326 326 327 326 325 328 327 326 324 323 322 321 320 318 316
340 341 342 342 342 341 340 342 342 340 340 338 339 338 338 336 335 334 334 334 334 334 333 332 330 326 325 325 325 325 326 328 327 328 328 326 324 323 321 320 319 317 316
328 338 340 341 340 341 339 339 341 340 340 340 337 335 333 333 335 335 334 334 332 333 332 331 330 327 326 325 325 326 327 328 328 329 328 327 325 322 320 319 318 317 316
324 329 337 337 339 339 339 337 338 340 339 339 338 333 329 328 327 334 334 333 332 332 331 331 330 328 326 325 324 325 326 326 329 330 329 326 323 321 319 318 317 316 316
318 321 324 334 337 337 336 335 335 336 338 337 336 335 330 329 325 327 331 333 333 331 331 331 330 330 328 324 324 325 325 325 325 327 328 326 324 321 319 318 317 316 315
313 314 317 323 333 336 336 335 334 336 336 336 335 335 332 329 329 325 327 329 332 331 332 331 330 330 329 325 324 324 324 324 324 324 324 327 324 321 318 317 316 315 315
309 311 313 316 322 335 335 336 335 335 336 336 334 333 333 332 330 327 324 325 329 331 331 331 330 330 329 328 325 323 323 323 323 322 326 326 325 323 319 317 316 315 315
304 308 310 313 318 327 334 335 334 335 335 335 333 333 332 332 331 330 328 324 324 329 330 331 330 330 330 329 327 326 325 324 323 323 325 327 326 324 319 317 316 316 315
302 303 305 309 313 319 330 333 333 332 335 335 334 333 332 331 331 330 329 326 324 323 327 329 330 330 329 329 328 328 327 326 325 325 325 326 327 325 321 318 316 316 315
300 302 304 306 310 314 321 332 332 331 334 336 335 333 332 331 331 331 329 328 327 325 324 326 328 329 329 329 328 328 328 327 327 325 325 326 327 326 324 319 317 316 316
299 301 303 305 307 312 318 330 330 330 332 334 334 334 332 331 330 330 329 328 328 325 325 327 327 327 327 327 327 328 327 327 326 326 326 326 326 326 325 321 318 317 317
298 300 303 307 308 310 316 329 330 329 331 332 333 333 332 331 330 330 329 327 328 329 325 325 326 326 326 326 326 325 326 324 324 324 325 325 326 326 325 323 319 318 317
295 299 304 308 312 311 316 327 333 331 331 331 332 332 330 331 330 329 326 322 323 327 326 323 325 325 325 326 326 325 324 322 322 322 323 325 325 325 325 322 319 319 318
293 296 301 307 314 314 317 325 331 331 333 331 332 331 331 329 326 325 324 327 325 327 327 326 325 326 325 326 325 325 324 322 322 322 322 323 324 325 324 322 319 319 319
290 292 295 298 311 317 324 328 329 328 329 331 331 331 331 329 325 324 326 327 327 327 327 326 325 325 325 325 325 323 322 322 322 323 322 322 322 323 323 321 318 318 320
288 290 291 292 298 305 311 321 325 327 328 331 328 329 330 328 327 327 327 327 327 325 323 323 322 322 322 323 323 322 320 318 316 317 319 319 319 318 319 318 315 315 318
286 288 288 289 290 291 301 319 323 327 326 323 318 316 317 322 324 325 327 324 322 320 316 316 318 319 320 321 322 321 317 305 303 306 306 302 305 308 312 316 316 316 316
285 285 286 286 288 290 289 296 306 298 297 298 299 299 301 304 314 314 312 313 314 314 314 311 308 304 304 307 309 313 314 307 304 301 302 291 294 296 298 301 311 315 316
284 285 285 285 285 286 289 288 288 288 290 290 291 292 293 295 294 299 301 301 298 299 300 301 300 294 295 299 301 306 307 302 297 296 298 290 290 288 290 290 291 301 308
283 283 283 284 285 285 285 287 288 286 286 286 286 288 288 289 289 290 291 287 285 284 285 292 291 291 292 296 300 301 301 298 292 293 294 289 287 286 286 286 287 289 289
282 282 282 282 283 284 285 284 284 286 285 285 285 285 285 285 287 289 287 284 282 282 285 288 288 290 291 293 296 297 297 298 291 291 291 288 286 286 284 284 284 284 284

GFSMA_925_thetae_120.txt.gz
Theta_e
337 340 340 339 338 338 340 341 340 338 337 336 336 336 336 339 337 334 336 335 334 331 331 332 333 334 334 334 333 333 332 330 330 328 329 330 330 329 327 325 324 324 323
337 337 342 343 341 341 340 340 340 339 337 336 336 336 337 338 337 337 337 336 335 333 332 332 332 332 333 333 333 332 331 329 325 326 329 328 329 328 326 324 324 323 322
338 338 341 345 345 343 343 341 341 340 339 338 337 337 338 339 337 337 337 336 335 333 331 332 331 331 331 332 332 331 329 324 323 325 329 327 328 327 325 323 322 321 320
340 340 340 342 342 344 343 341 342 341 340 340 340 337 338 338 337 338 337 336 335 334 332 330 330 332 331 330 331 331 329 325 325 327 331 328 327 326 324 323 322 320 320
339 339 340 342 343 342 342 342 342 341 340 340 340 336 338 337 337 337 336 336 335 334 334 333 330 331 332 330 329 330 330 328 327 324 326 328 326 326 324 323 321 320 319
332 327 338 338 339 341 341 342 342 341 341 338 338 337 338 338 337 336 336 335 335 333 334 333 330 328 330 331 330 329 327 326 324 324 325 328 327 325 324 323 321 320 318
325 329 336 338 337 337 338 339 341 340 339 338 337 337 338 338 337 336 336 335 335 334 334 333 332 330 328 327 327 326 327 329 329 327 329 329 327 325 324 323 322 320 318
317 318 323 331 336 337 337 336 336 337 339 337 337 332 331 333 336 336 335 335 334 334 333 333 332 331 330 327 326 325 325 328 328 329 326 327 326 325 324 323 322 320 318
310 311 314 317 323 333 335 335 335 335 335 335 336 332 327 331 326 333 335 334 334 334 333 333 332 331 330 328 326 325 324 325 326 328 329 329 328 325 324 323 321 320 318
308 309 310 311 314 318 329 336 335 333 334 332 331 334 330 329 326 327 331 333 334 333 332 332 332 331 330 329 327 325 324 324 326 326 331 328 327 325 324 322 320 319 318
304 305 307 308 310 313 316 328 336 335 333 331 329 332 331 328 326 323 325 327 331 332 332 331 331 331 330 329 329 326 323 325 326 326 328 327 327 325 323 321 320 318 317
300 302 304 305 307 310 315 320 332 334 334 330 329 329 331 329 326 324 322 323 327 329 331 332 331 330 330 330 329 328 324 324 324 325 325 327 327 326 323 321 319 318 317
298 299 300 301 303 305 310 314 321 334 333 331 329 331 331 331 331 329 326 323 324 328 330 330 330 330 330 330 329 328 327 323 323 323 324 323 324 325 324 321 318 317 317
296 297 298 300 301 303 305 309 312 325 334 333 332 332 331 331 332 331 329 325 322 322 326 329 330 330 330 329 329 329 328 326 323 323 323 322 323 325 325 322 318 317 316
295 297 298 299 301 302 304 308 312 315 330 332 331 331 331 332 332 331 330 328 327 322 326 325 328 329 329 329 329 329 328 328 326 325 323 324 326 326 326 324 320 317 316
294 296 297 298 300 302 303 305 309 314 324 331 331 331 331 331 331 331 330 329 328 325 324 325 327 328 328 328 328 328 328 328 327 327 326 324 325 325 326 325 323 318 317
292 293 294 296 298 301 304 306 309 312 317 329 331 331 332 331 330 330 329 329 327 326 325 323 327 328 327 327 327 328 328 328 327 326 326 326 326 325 325 326 325 320 317
290 291 292 295 298 301 305 307 309 312 316 327 329 331 332 332 331 329 329 328 327 327 326 323 324 325 326 326 326 326 327 327 325 325 324 325 325 326 326 326 325 322 318
288 289 290 293 295 298 301 311 312 312 316 325 328 328 331 332 331 329 328 328 325 326 326 326 324 324 324 325 325 325 325 325 324 324 321 321 322 323 324 325 325 324 320
286 287 288 290 291 293 295 302 313 314 317 326 328 327 329 330 330 328 326 325 323 324 324 325 324 323 324 325 325 323 322 323 322 322 321 321 321 321 322 323 324 323 321
285 286 287 287 289 289 292 300 312 319 320 326 328 327 328 329 329 327 325 325 325 324 324 325 324 323 323 323 323 323 322 321 320 320 319 317 316 319 318 320 320 318 323
284 285 286 286 287 288 290 299 312 309 309 308 305 307 312 324 327 326 324 326 325 324 324 324 324 324 322 322 323 322 320 313 309 313 312 308 307 308 311 313 315 317 319
283 283 285 286 286 286 288 289 296 293 293 294 296 296 298 296 300 308 321 322 322 323 321 320 319 317 316 316 317 314 316 311 309 306 305 295 297 299 299 301 308 313 315
282 282 283 284 286 286 286 288 288 288 288 290 291 292 291 292 293 295 297 305 303 306 310 313 313 309 309 309 309 307 307 306 302 300 300 290 291 289 292 294 297 303 309
281 281 282 283 284 285 285 285 287 287 286 286 286 287 288 289 290 290 286 286 285 285 285 291 295 294 296 301 304 302 299 300 292 294 296 293 288 286 287 288 290 292 295
279 280 281 281 283 284 284 285 285 285 285 285 285 285 285 285 290 291 289 287 282 282 284 286 287 289 289 293 296 297 297 299 292 291 293 292 286 287 284 284 286 287 288

GFSMA_925_thetae_123.txt.gz
Theta_e
345 342 342 341 341 341 339 340 340 340 339 338 337 336 335 335 337 335 333 335 334 334 333 332 330 331 333 334 334 334 333 332 330 330 330 329 328 329 330 329 328 327 326
338 339 339 340 340 340 340 339 339 339 339 338 337 336 336 335 337 337 334 334 335 334 333 330 331 331 332 334 334 333 333 332 330 329 329 329 328 327 330 329 327 326 325
339 339 339 338 338 340 340 339 340 340 340 339 338 337 336 335 337 337 335 334 334 335 334 332 332 332 331 332 333 333 333 332 331 330 329 328 328 327 328 328 326 324 323
339 340 340 339 339 338 340 341 341 341 340 340 338 337 337 336 337 337 336 336 336 336 334 333 332 331 330 331 332 333 332 332 331 329 324 324 328 328 327 328 325 323 323
331 334 335 328 336 337 337 339 341 341 339 339 339 338 338 337 337 338 337 336 336 336 335 334 331 330 330 330 330 330 332 331 330 325 323 325 327 328 327 327 324 323 321
328 331 329 328 326 327 334 336 338 339 339 338 337 337 338 338 337 338 337 337 336 335 335 334 333 332 330 330 329 329 329 331 331 326 326 327 328 329 327 326 324 322 321
315 316 325 327 327 328 328 334 336 338 338 337 336 335 335 335 336 337 337 336 336 335 335 333 333 333 330 329 330 330 329 332 331 330 326 326 327 328 327 326 324 322 321
307 308 311 313 319 327 327 328 335 336 336 336 335 331 333 333 335 335 336 336 335 335 334 333 333 332 331 329 329 329 328 328 329 329 328 327 326 326 328 326 324 322 321
304 305 306 308 310 312 316 325 334 334 334 334 334 331 329 332 327 333 335 335 335 335 334 334 333 333 332 331 330 329 327 326 325 325 326 327 328 328 329 326 325 323 321
302 302 304 305 306 308 311 314 320 333 331 328 331 331 328 327 327 326 329 332 333 334 334 333 333 333 332 331 331 329 328 326 325 324 324 326 327 329 329 327 325 323 322
299 300 301 302 303 304 307 311 315 319 332 328 330 330 328 327 326 324 327 327 330 331 331 332 333 332 332 331 330 330 329 326 325 323 324 324 327 326 329 327 325 323 322
297 298 298 298 299 301 303 306 311 317 326 332 332 330 328 327 326 325 325 323 328 330 331 330 331 332 331 331 330 330 329 328 325 323 324 326 327 329 328 326 325 323 322
296 296 296 297 298 300 301 302 304 307 311 325 330 329 327 327 327 326 326 326 325 326 327 329 332 330 331 331 330 330 329 328 326 323 323 324 327 326 326 326 324 323 321
294 295 296 297 298 299 300 301 303 306 309 313 328 329 328 328 328 327 326 326 324 322 325 328 328 329 330 330 329 329 329 328 327 323 323 323 324 327 325 325 324 322 320
293 294 294 295 296 298 299 300 301 303 307 311 316 329 328 328 328 328 328 328 327 328 326 326 326 328 328 328 329 329 329 328 328 325 323 323 323 322 324 323 324 323 320
290 291 292 293 294 295 297 299 302 303 304 309 314 322 329 330 329 329 329 328 328 328 327 325 326 327 328 328 328 328 328 328 328 327 324 323 323 323 322 323 324 324 322
288 290 291 292 292 294 296 299 301 303 304 308 312 317 326 330 329 330 329 329 328 328 327 327 324 325 327 327 329 328 328 328 328 327 327 326 325 323 324 325 325 325 323
287 288 289 290 291 293 294 297 300 304 307 309 311 313 321 328 329 330 329 328 329 327 328 326 324 324 326 327 328 328 328 327 328 327 327 327 326 325 324 324 325 325 323
286 287 288 288 289 290 291 293 296 299 303 308 311 314 318 325 328 328 328 328 328 327 326 327 324 322 323 325 325 325 327 327 327 326 326 325 322 322 323 325 325 324 325
284 285 286 287 287 288 289 290 292 296 301 312 312 314 317 323 328 328 328 328 328 327 326 326 324 322 323 323 324 322 322 323 322 324 322 323 320 319 319 321 322 322 323
283 283 284 286 287 287 288 289 296 300 302 312 313 314 315 319 326 327 328 328 327 325 325 325 324 321 322 322 322 322 321 321 321 321 321 320 318 317 317 317 319 320 321
282 282 283 285 286 286 287 288 291 294 297 299 299 302 309 314 317 324 326 327 326 324 324 323 323 323 322 322 322 321 318 313 311 317 317 314 313 312 311 311 314 316 318
281 282 282 284 285 285 286 287 287 288 289 290 290 291 293 297 300 302 310 313 319 320 321 322 322 323 322 322 322 319 317 317 313 310 314 303 303 302 302 301 305 313 315
280 281 281 282 283 284 285 285 286 286 286 287 287 287 288 290 293 294 293 296 293 296 301 307 314 309 314 317 318 320 319 313 304 305 305 294 294 293 293 295 297 302 309
280 280 280 281 282 283 283 284 284 284 285 285 285 286 286 286 288 293 292 286 286 286 287 285 288 291 293 297 302 308 308 305 293 296 299 298 290 288 289 290 291 293 298
279 280 280 280 280 281 283 282 282 283 283 283 283 284 284 285 286 287 288 286 285 284 288 290 289 290 289 291 292 294 299 300 293 292 296 296 288 289 285 285 287 289 290

GFSMA_925_thetae_126.txt.gz
Theta_e
343 341 339 344 341 340 339 339 340 342 341 339 338 336 334 334 333 333 333 333 332 332 334 335 334 332 332 333 334 334 333 333 332 330 329 330 330 329 328 329 329 328 327
342 340 340 341 345 340 340 339 339 339 341 342 339 338 336 335 334 333 335 335 333 333 334 334 332 332 331 331 333 334 333 333 333 331 329 329 329 329 327 328 329 328 328
337 338 338 338 337 337 336 337 339 338 338 341 342 340 337 336 335 334 334 337 335 334 334 334 333 330 331 331 331 333 334 333 332 331 330 329 329 328 327 327 329 328 326
335 331 332 336 336 336 338 339 338 339 338 338 338 340 337 337 336 335 335 337 336 333 334 334 334 332 331 331 331 332 333 333 333 332 330 329 328 328 328 326 328 328 326
330 330 331 331 332 335 336 336 337 337 337 337 337 337 337 337 336 336 335 337 336 335 334 335 334 333 332 331 330 330 331 332 332 332 331 330 327 327 326 327 327 328 325
320 323 327 328 328 328 328 329 328 331 334 336 337 335 335 335 336 336 335 336 336 336 336 336 335 334 331 331 330 330 330 330 330 331 331 329 325 324 325 327 327 327 325
309 311 315 321 322 326 327 326 327 328 328 333 335 334 333 332 334 335 335 335 335 335 336 336 335 334 332 331 330 330 330 330 330 331 330 329 324 324 326 327 327 328 324
305 306 307 309 311 315 321 326 327 326 326 327 333 331 332 330 331 332 332 331 332 334 335 336 335 334 333 332 331 330 331 330 331 331 331 329 328 327 326 327 328 328 324
302 303 304 305 307 308 311 314 323 327 327 329 332 332 329 331 326 329 331 331 330 329 333 335 335 334 333 332 332 329 329 330 329 330 330 329 328 327 326 326 328 327 325
299 300 301 302 303 304 307 309 313 318 326 326 325 330 330 328 327 327 326 328 326 325 329 332 334 334 333 332 332 330 330 329 328 328 327 326 326 326 327 327 326 327 326
296 297 298 298 299 301 302 304 307 311 315 321 328 329 329 329 328 325 324 322 323 323 325 329 331 332 333 333 332 331 330 330 329 327 326 325 324 323 324 327 328 327 327
294 295 296 296 296 298 299 301 303 305 309 315 322 327 327 328 327 326 325 322 322 323 324 326 327 330 331 332 332 332 331 330 329 328 326 325 323 324 325 325 327 328 327
293 293 294 295 296 297 298 300 301 302 304 306 309 318 329 328 327 326 324 324 323 322 322 326 326 327 330 330 332 332 331 330 330 329 327 324 323 324 327 327 325 328 326
292 292 293 294 294 296 297 298 300 301 302 303 308 309 317 328 327 325 325 324 324 322 323 324 326 326 327 331 331 332 331 330 329 329 328 324 323 325 326 328 327 327 325
290 291 290 292 293 294 295 296 298 300 301 302 304 309 312 324 326 326 325 324 324 325 324 324 325 326 325 327 329 329 330 329 329 329 328 324 323 323 326 326 324 325 325
288 288 289 290 291 292 293 294 296 298 301 302 303 305 310 314 327 326 326 325 324 324 325 324 325 327 326 325 329 328 328 328 328 328 328 325 323 323 324 324 324 324 325
286 287 288 289 290 291 292 294 296 298 300 302 304 305 308 313 318 326 327 326 326 325 326 326 325 326 326 325 327 328 327 327 328 328 328 327 323 322 323 323 323 324 323
285 285 286 288 289 289 289 291 293 294 297 300 303 305 307 311 315 321 327 327 327 327 327 327 326 324 324 325 328 327 325 328 327 327 328 327 325 323 323 323 323 323 322
284 284 285 287 287 288 289 289 290 291 293 296 302 307 309 310 313 316 323 325 327 327 326 327 326 323 322 323 325 325 323 323 325 327 327 327 327 326 325 325 324 324 324
282 283 284 285 286 287 287 288 289 291 293 294 298 301 305 309 313 315 320 323 326 326 326 326 326 320 321 321 323 322 321 322 323 324 325 325 326 325 323 323 322 322 321
282 282 282 284 285 286 286 287 288 291 292 297 297 301 306 310 313 314 318 322 322 326 326 325 325 322 321 321 321 321 322 319 319 320 320 321 321 321 320 319 319 320 321
281 281 281 282 284 284 284 285 286 287 288 289 291 293 297 302 304 311 314 312 318 325 325 325 325 324 323 322 322 320 318 314 312 317 317 312 313 315 315 315 316 317 318
280 280 280 281 281 284 283 284 284 285 285 286 287 288 289 291 296 297 300 298 303 307 309 317 323 323 322 321 322 320 318 318 318 316 314 304 305 307 307 308 309 313 315
280 279 279 280 280 282 282 282 283 283 283 284 285 286 286 287 289 292 295 291 290 292 294 295 294 295 304 311 316 319 318 315 311 312 310 296 296 297 297 299 303 307 310
279 279 279 278 279 279 281 281 281 281 281 282 282 284 284 285 285 286 289 289 288 288 289 291 291 290 290 295 300 308 308 307 294 301 302 302 292 290 291 293 294 297 301
278 279 279 278 278 278 280 281 279 279 279 280 280 281 282 283 283 283 284 284 285 285 288 288 290 291 289 294 295 295 296 297 293 293 297 297 289 292 286 288 290 291 292

GFSMA_925_thetae_132.txt.gz
Theta_e
342 343 343 343 342 342 341 341 343 342 343 342 341 340 340 340 339 338 338 338 334 333 334 333 332 333 332 332 332 333 333 333 333 332 331 331 332 329 329 330 328 329 329
341 342 341 343 342 343 343 342 339 341 342 340 340 341 341 340 339 339 338 338 336 333 332 333 333 331 333 333 332 332 333 333 333 333 332 330 332 330 329 329 327 327 329
337 339 340 340 340 341 343 340 341 339 338 340 340 339 340 341 340 340 339 339 338 335 333 334 333 332 334 333 332 331 332 333 334 333 333 332 331 331 329 329 329 326 328
329 332 336 337 338 338 337 336 339 339 338 338 339 340 340 339 340 340 339 339 339 337 336 334 335 333 334 334 333 332 331 332 333 334 333 333 332 331 330 329 329 328 327
315 318 325 327 331 334 335 335 336 338 336 333 334 336 337 339 339 339 339 339 339 339 338 337 336 335 333 334 333 331 330 330 331 333 333 333 332 331 330 329 329 329 326
309 312 315 317 320 325 329 334 335 336 334 332 332 336 336 336 337 339 338 338 338 338 339 338 337 336 333 333 333 333 332 330 330 331 332 333 333 332 331 330 329 329 328
307 309 310 312 314 317 321 324 328 332 334 332 330 332 329 327 335 337 338 337 337 338 338 338 337 337 336 333 334 335 334 332 330 329 329 332 332 332 332 330 329 328 329
304 305 307 308 310 312 314 318 322 322 326 330 332 332 334 332 333 334 336 336 337 337 337 337 337 338 337 336 335 335 335 334 331 329 329 329 330 332 332 331 329 328 328
302 303 304 305 307 308 310 312 315 318 321 322 328 331 333 335 334 335 335 336 336 336 336 335 336 336 336 336 336 336 335 334 333 330 329 328 329 329 330 330 330 329 327
300 300 301 302 302 304 306 308 309 311 313 316 320 323 329 331 334 335 332 333 333 334 333 332 331 331 331 333 334 334 335 334 333 332 331 330 328 328 328 329 330 329 326
299 298 298 298 299 299 301 302 303 306 310 312 315 317 320 328 331 333 332 331 331 330 329 326 326 327 328 328 330 332 332 334 334 332 332 331 331 329 329 329 329 329 326
297 297 296 295 296 297 298 299 300 302 303 305 308 311 314 319 327 330 332 331 330 329 328 327 326 326 327 327 328 328 329 330 333 333 331 331 330 331 330 328 329 329 328
294 294 294 294 294 295 295 296 298 299 300 302 304 306 310 314 317 318 326 332 333 330 329 328 327 326 326 327 327 328 328 325 327 331 332 331 330 329 330 330 329 329 328
291 291 291 292 293 293 293 294 295 296 298 299 301 303 304 307 311 316 317 326 333 332 329 330 329 328 327 327 327 328 329 327 325 326 331 332 331 330 329 329 328 328 326
289 289 290 290 291 291 292 292 293 294 295 296 298 301 302 304 306 310 315 317 327 332 332 329 330 328 326 326 327 328 329 329 325 323 323 331 332 331 330 329 328 327 325
287 288 288 289 289 290 290 291 291 292 293 294 296 298 300 303 304 306 310 315 320 326 332 326 327 328 328 327 327 328 328 328 327 323 322 328 332 331 331 330 329 328 327
286 286 287 288 288 288 289 289 290 290 292 294 295 297 298 301 302 305 306 311 316 323 328 327 326 327 329 329 329 329 329 329 328 326 323 325 330 331 331 330 329 328 325
286 285 286 286 287 287 287 288 288 289 291 292 293 294 296 297 299 304 306 307 312 318 324 329 326 326 328 329 329 330 330 329 329 328 323 324 325 330 331 330 329 328 324
285 285 285 285 287 287 286 286 287 287 287 289 291 293 294 296 299 301 303 307 309 313 321 324 326 324 327 328 329 329 330 330 329 329 328 326 325 326 330 330 329 328 324
284 284 284 284 286 285 285 285 286 285 285 286 287 289 294 295 297 299 300 306 309 311 317 321 324 325 325 326 328 329 330 329 327 327 325 325 325 325 327 329 328 327 324
283 283 283 283 284 284 283 283 285 284 284 283 284 285 286 288 291 294 297 302 305 311 314 319 322 323 325 325 326 327 328 326 325 325 324 325 325 325 325 327 328 327 324
282 281 281 282 282 282 281 281 282 283 282 282 282 283 284 285 289 289 289 288 294 298 303 313 319 322 322 323 324 324 325 326 320 320 323 323 323 323 324 324 327 326 324
281 281 280 280 280 280 280 280 280 281 280 280 281 281 282 283 285 286 286 286 286 287 289 295 302 291 297 297 300 312 320 324 324 322 319 318 317 317 319 318 321 325 325
281 280 279 279 279 279 279 279 279 279 279 278 278 280 281 281 282 283 284 284 284 284 285 286 286 286 287 291 297 300 306 307 319 318 315 307 310 309 312 309 309 314 318
280 279 278 278 278 278 278 278 278 278 278 277 277 278 278 279 280 280 281 282 282 283 284 284 284 285 285 287 296 301 297 299 301 297 301 303 296 299 298 299 299 301 303
279 279 278 278 277 277 277 276 276 276 276 277 276 276 277 278 278 278 279 280 281 282 282 283 284 284 284 285 285 287 286 291 294 298 289 292 292 294 293 292 293 293 295

GFSMA_925_thetae_138.txt.gz
Theta_e
340 341 342 342 340 340 340 340 340 341 341 341 342 337 341 341 339 337 338 337 337 336 335 334 332 332 333 333 332 333 334 334 334 333 333 332 330 331 329 328 328 327 329
333 335 336 338 340 341 341 339 339 339 339 338 338 339 340 341 340 337 338 338 337 337 336 335 333 333 332 332 332 332 333 334 334 334 333 333 331 331 331 329 329 328 327
320 323 327 330 332 332 333 337 338 336 335 327 328 331 339 339 339 340 340 340 340 339 337 337 334 332 333 332 332 332 331 332 333 334 333 333 332 331 332 331 329 329 328
314 317 320 324 324 325 329 332 334 336 334 324 326 328 335 335 335 337 338 337 338 339 339 338 337 335 331 332 332 331 331 331 332 332 333 333 333 332 331 331 331 329 328
310 312 314 316 316 319 322 325 326 329 333 334 327 332 331 331 334 335 335 336 338 337 339 340 339 337 334 331 332 332 330 331 332 331 332 333 333 333 332 331 331 331 329
308 308 310 311 312 314 316 317 319 323 327 329 332 334 335 335 336 335 335 336 336 335 335 337 339 338 337 336 332 333 332 331 332 331 331 332 333 333 332 332 331 331 330
306 306 306 308 309 310 311 313 316 318 321 323 327 330 332 332 333 333 334 334 335 335 333 337 338 338 338 337 335 333 333 332 332 331 331 331 331 333 333 333 332 331 331
304 305 304 305 304 305 307 307 311 314 315 318 324 325 328 328 330 332 333 333 333 332 334 332 336 339 338 337 336 335 334 333 332 331 332 330 330 330 332 333 333 332 331
302 303 303 302 301 302 303 304 305 306 308 310 314 321 325 327 325 327 330 332 332 332 331 332 333 334 337 337 337 336 335 334 334 333 333 331 330 330 330 331 333 333 332
301 300 299 297 298 297 299 300 301 301 303 305 308 312 315 320 322 323 324 324 328 331 331 329 329 332 333 334 335 336 335 335 334 333 333 333 332 331 329 329 330 332 332
297 296 294 294 294 295 295 295 296 297 298 300 302 305 306 310 314 318 317 318 323 328 329 330 330 332 332 334 335 334 336 335 334 333 332 334 333 332 331 329 328 330 331
293 292 292 292 292 292 293 294 294 295 296 297 298 300 302 306 309 311 314 315 317 318 325 327 329 332 334 335 336 335 334 334 335 332 332 333 334 333 333 331 329 328 329
291 291 290 290 291 291 291 292 292 293 294 295 296 298 298 299 301 303 306 310 314 317 318 318 321 328 331 333 332 332 333 334 334 332 330 331 332 333 333 332 331 329 328
290 289 289 289 289 290 290 290 291 291 292 293 294 295 296 297 298 300 303 306 308 310 313 317 318 322 329 329 330 330 330 330 329 330 330 330 330 332 333 333 332 331 330
289 288 288 288 288 289 289 289 289 290 290 291 292 293 294 295 296 298 300 301 304 308 309 312 316 317 320 326 329 328 326 328 328 329 331 331 329 327 328 332 332 332 331
288 288 287 287 288 287 287 287 288 288 289 288 289 289 290 292 294 296 298 300 302 305 307 309 311 315 316 320 326 328 326 326 328 327 328 329 328 328 327 327 331 332 331
287 287 287 286 287 286 285 285 287 287 287 287 287 287 287 288 292 291 294 297 301 303 306 306 308 311 314 319 319 320 326 327 328 328 328 328 328 327 327 326 328 331 331
286 286 286 285 285 284 284 284 286 285 285 285 285 285 285 287 287 289 292 295 299 300 303 305 306 308 311 314 318 321 325 325 327 328 328 328 329 328 328 327 327 330 329
285 285 284 284 284 282 283 283 285 283 283 283 283 284 284 284 286 288 291 294 297 299 302 304 306 307 308 311 313 319 322 325 326 325 320 328 328 328 328 328 326 325 325
283 283 283 282 282 280 281 282 283 282 281 281 281 281 282 283 285 286 287 287 290 294 298 301 304 306 307 309 313 317 321 323 325 325 323 319 328 329 328 328 328 327 326
282 281 282 281 279 280 280 281 281 281 280 279 279 279 280 281 282 284 284 284 286 287 293 297 303 305 303 298 297 296 305 313 323 326 325 325 327 327 327 327 326 326 325
282 280 280 280 279 279 279 280 280 279 278 277 278 277 278 279 280 282 283 283 284 285 287 291 289 290 289 287 288 289 296 310 318 317 316 326 325 323 323 323 324 324 323
281 280 279 278 278 278 279 279 279 278 277 276 276 277 277 278 279 279 281 282 282 283 284 285 285 285 286 285 286 288 294 298 305 300 306 317 319 319 318 317 317 318 320
281 280 279 278 277 278 278 278 279 277 276 276 276 277 277 277 278 278 278 279 280 281 283 283 283 283 284 285 285 286 288 293 299 294 294 295 301 305 307 308 307 308 309
282 281 279 278 277 277 278 277 276 277 277 276 276 276 277 277 277 277 277 278 278 279 280 281 281 282 282 283 285 285 285 287 294 289 286 285 292 294 296 295 296 296 298
281 281 280 278 277 276 277 277 276 276 276 276 275 275 276 277 277 277 276 276 277 277 278 279 279 280 281 281 283 284 285 285 285 285 285 285 289 290 294 292 291 292 294